<?xml version="1.0" encoding="UTF-8" standalone="no" ?>
<gpx xmlns="http://www.topografix.com/GPX/1/1" xmlns:xsi="http://www.w3.org/2001/XMLSchema-instance" xsi:schemaLocation="http://www.topografix.com/GPX/1/1 http://www.topografix.com/GPX/1/1/gpx.xsd" version="1.1" creator="VisuGPX - https://www.visugpx.com">
  <metadata>
    <name>GR®54 Step1</name>
    <desc><![CDATA[Randonnée sur le GR®54 Isère et Hautes-Alpes, Tour des massifs de l'Oisans et des Ecrins, depuis Bourg-d'Oisans. Gîtes d'étapes, Chambres d'hôtes, Maison d'hôtes, Hôtels, Camping, Refuges, Auberges.

Randonnée sur le GR®54 Isère et Hautes-Alpes, Tour des massifs de l'Oisans et des Ecrins, depuis Bourg-d'Oisans. Gîtes d'étapes, Chambres d'hôtes, Maison d'hôtes, Hôtels, Camping, Refuges, Auberges.]]></desc>
  </metadata>
  <trk>
    <name><![CDATA[GR®54 Tour des massifs de l'Oisans et des Ecrins (Isère, Hautes-Alpes) (2021)]]></name>
    <cmt><![CDATA[Randonnée sur le GR®54 Isère et Hautes-Alpes, Tour des massifs de l'Oisans et des Ecrins, depuis Bourg-d'Oisans. Gîtes d'étapes, Chambres d'hôtes, Maison d'hôtes, Hôtels, Camping, Refuges, Auberges.]]></cmt>
    <desc><![CDATA[Randonnée sur le GR®54 Isère et Hautes-Alpes, Tour des massifs de l'Oisans et des Ecrins, depuis Bourg-d'Oisans. Gîtes d'étapes, Chambres d'hôtes, Maison d'hôtes, Hôtels, Camping, Refuges, Auberges.]]></desc>
    <trkseg>
      <trkpt lat="45.05512" lon="6.03277">
        <ele>718.003</ele>
        <time>2020-04-05T10:38:10Z</time>
      </trkpt>
      <trkpt lat="45.05815" lon="6.03621">
        <ele>715.408</ele>
        <time>2020-04-05T10:38:30Z</time>
      </trkpt>
      <trkpt lat="45.05918" lon="6.03785">
        <ele>716.057</ele>
        <time>2020-04-05T10:38:50Z</time>
      </trkpt>
      <trkpt lat="45.06013" lon="6.03776">
        <ele>716.095</ele>
        <time>2020-04-05T10:39:10Z</time>
      </trkpt>
      <trkpt lat="45.06163" lon="6.03733">
        <ele>717.083</ele>
        <time>2020-04-05T10:39:30Z</time>
      </trkpt>
      <trkpt lat="45.06235" lon="6.037">
        <ele>717.057</ele>
        <time>2020-04-05T10:39:50Z</time>
      </trkpt>
      <trkpt lat="45.06289" lon="6.03707">
        <ele>718.068</ele>
        <time>2020-04-05T10:40:10Z</time>
      </trkpt>
      <trkpt lat="45.06425" lon="6.03898">
        <ele>721.315</ele>
        <time>2020-04-05T10:40:30Z</time>
      </trkpt>
      <trkpt lat="45.06512" lon="6.04014">
        <ele>735.399</ele>
        <time>2021-01-20T14:10:55Z</time>
      </trkpt>
      <trkpt lat="45.06681" lon="6.03954">
        <ele>745.946</ele>
        <time>2021-01-20T14:11:15Z</time>
      </trkpt>
      <trkpt lat="45.06774" lon="6.03948">
        <ele>762.665</ele>
        <time>2021-01-20T14:11:35Z</time>
      </trkpt>
      <trkpt lat="45.06788" lon="6.0394">
        <ele>761.668</ele>
        <time>2021-01-20T14:11:55Z</time>
      </trkpt>
      <trkpt lat="45.06805" lon="6.03956">
        <ele>771.414</ele>
        <time>2021-01-20T14:12:15Z</time>
      </trkpt>
      <trkpt lat="45.0684" lon="6.03948">
        <ele>774.808</ele>
        <time>2021-01-20T14:12:35Z</time>
      </trkpt>
      <trkpt lat="45.06874" lon="6.03956">
        <ele>785.992</ele>
        <time>2021-01-20T14:12:55Z</time>
      </trkpt>
      <trkpt lat="45.06874" lon="6.0398">
        <ele>796.09</ele>
        <time>2021-01-20T14:13:15Z</time>
      </trkpt>
      <trkpt lat="45.06887" lon="6.04024">
        <ele>820.288</ele>
        <time>2021-01-20T14:13:35Z</time>
      </trkpt>
      <trkpt lat="45.069" lon="6.04045">
        <ele>833.622</ele>
        <time>2021-01-20T14:13:55Z</time>
      </trkpt>
      <trkpt lat="45.06898" lon="6.04057">
        <ele>839.073</ele>
        <time>2021-01-20T14:14:15Z</time>
      </trkpt>
      <trkpt lat="45.06878" lon="6.04069">
        <ele>842.71</ele>
        <time>2021-01-20T14:14:35Z</time>
      </trkpt>
      <trkpt lat="45.0691" lon="6.04088">
        <ele>857.484</ele>
        <time>2021-01-20T14:14:55Z</time>
      </trkpt>
      <trkpt lat="45.06879" lon="6.04094">
        <ele>856.831</ele>
        <time>2021-01-20T14:15:15Z</time>
      </trkpt>
      <trkpt lat="45.06874" lon="6.04108">
        <ele>864.312</ele>
        <time>2021-01-20T14:15:35Z</time>
      </trkpt>
      <trkpt lat="45.06881" lon="6.04115">
        <ele>869.232</ele>
        <time>2021-01-20T14:15:55Z</time>
      </trkpt>
      <trkpt lat="45.06846" lon="6.04125">
        <ele>868.605</ele>
        <time>2021-01-20T14:16:15Z</time>
      </trkpt>
      <trkpt lat="45.06823" lon="6.04156">
        <ele>880.208</ele>
        <time>2021-01-20T14:16:35Z</time>
      </trkpt>
      <trkpt lat="45.06797" lon="6.04181">
        <ele>891.747</ele>
        <time>2021-01-20T14:16:55Z</time>
      </trkpt>
      <trkpt lat="45.06866" lon="6.04199">
        <ele>919.985</ele>
        <time>2021-01-20T14:17:15Z</time>
      </trkpt>
      <trkpt lat="45.06866" lon="6.04209">
        <ele>926.793</ele>
        <time>2021-01-20T14:17:35Z</time>
      </trkpt>
      <trkpt lat="45.06853" lon="6.0421">
        <ele>924.757</ele>
        <time>2021-01-20T14:17:55Z</time>
      </trkpt>
      <trkpt lat="45.06816" lon="6.0423">
        <ele>930.258</ele>
        <time>2021-01-20T14:18:15Z</time>
      </trkpt>
      <trkpt lat="45.0679" lon="6.04226">
        <ele>920.065</ele>
        <time>2021-01-20T14:18:35Z</time>
      </trkpt>
      <trkpt lat="45.0676" lon="6.04242">
        <ele>921.129</ele>
        <time>2021-01-20T14:18:55Z</time>
      </trkpt>
      <trkpt lat="45.06758" lon="6.0427">
        <ele>935.446</ele>
        <time>2021-01-20T14:19:15Z</time>
      </trkpt>
      <trkpt lat="45.06734" lon="6.0431">
        <ele>949.221</ele>
        <time>2021-01-20T14:19:35Z</time>
      </trkpt>
      <trkpt lat="45.06706" lon="6.04341">
        <ele>952.541</ele>
        <time>2021-01-20T14:19:55Z</time>
      </trkpt>
      <trkpt lat="45.06702" lon="6.04378">
        <ele>958.205</ele>
        <time>2021-01-20T14:20:15Z</time>
      </trkpt>
      <trkpt lat="45.06718" lon="6.04389">
        <ele>965.508</ele>
        <time>2021-01-20T14:20:35Z</time>
      </trkpt>
      <trkpt lat="45.06734" lon="6.04411">
        <ele>974.378</ele>
        <time>2021-01-20T14:20:55Z</time>
      </trkpt>
      <trkpt lat="45.06734" lon="6.04434">
        <ele>972.896</ele>
        <time>2021-01-20T14:21:15Z</time>
      </trkpt>
      <trkpt lat="45.06758" lon="6.04479">
        <ele>972.344</ele>
        <time>2021-01-20T14:21:35Z</time>
      </trkpt>
      <trkpt lat="45.0681" lon="6.04494">
        <ele>977.938</ele>
        <time>2021-01-20T14:21:55Z</time>
      </trkpt>
      <trkpt lat="45.06834" lon="6.04529">
        <ele>974.649</ele>
        <time>2021-01-20T14:22:15Z</time>
      </trkpt>
      <trkpt lat="45.06859" lon="6.04578">
        <ele>970.236</ele>
        <time>2021-01-20T14:22:35Z</time>
      </trkpt>
      <trkpt lat="45.06946" lon="6.04638">
        <ele>974.36</ele>
        <time>2021-01-20T14:22:55Z</time>
      </trkpt>
      <trkpt lat="45.06969" lon="6.04667">
        <ele>974.347</ele>
        <time>2021-01-20T14:23:15Z</time>
      </trkpt>
      <trkpt lat="45.07011" lon="6.04777">
        <ele>970.553</ele>
        <time>2021-01-20T14:23:35Z</time>
      </trkpt>
      <trkpt lat="45.07027" lon="6.04842">
        <ele>967.204</ele>
        <time>2021-01-20T14:23:55Z</time>
      </trkpt>
      <trkpt lat="45.07067" lon="6.04842">
        <ele>980.414</ele>
        <time>2021-01-20T14:24:15Z</time>
      </trkpt>
      <trkpt lat="45.07073" lon="6.04862">
        <ele>982.308</ele>
        <time>2021-01-20T14:24:35Z</time>
      </trkpt>
      <trkpt lat="45.07066" lon="6.04882">
        <ele>979.411</ele>
        <time>2021-01-20T14:24:55Z</time>
      </trkpt>
      <trkpt lat="45.07039" lon="6.04906">
        <ele>967.979</ele>
        <time>2021-01-20T14:25:15Z</time>
      </trkpt>
      <trkpt lat="45.07039" lon="6.04956">
        <ele>968.797</ele>
        <time>2021-01-20T14:25:35Z</time>
      </trkpt>
      <trkpt lat="45.07065" lon="6.05048">
        <ele>985.531</ele>
        <time>2021-01-20T14:25:55Z</time>
      </trkpt>
      <trkpt lat="45.07028" lon="6.05117">
        <ele>974.412</ele>
        <time>2021-01-20T14:26:15Z</time>
      </trkpt>
      <trkpt lat="45.07008" lon="6.05131">
        <ele>967.339</ele>
        <time>2021-01-20T14:26:35Z</time>
      </trkpt>
      <trkpt lat="45.06991" lon="6.05123">
        <ele>965.223</ele>
        <time>2021-01-20T14:26:55Z</time>
      </trkpt>
      <trkpt lat="45.06998" lon="6.05088">
        <ele>958.26</ele>
        <time>2021-01-20T14:27:15Z</time>
      </trkpt>
      <trkpt lat="45.06983" lon="6.05052">
        <ele>958.788</ele>
        <time>2021-01-20T14:27:35Z</time>
      </trkpt>
      <trkpt lat="45.06913" lon="6.05004">
        <ele>963.824</ele>
        <time>2021-01-20T14:27:55Z</time>
      </trkpt>
      <trkpt lat="45.06864" lon="6.0499">
        <ele>976.326</ele>
        <time>2021-01-20T14:28:15Z</time>
      </trkpt>
      <trkpt lat="45.06833" lon="6.04947">
        <ele>978.108</ele>
        <time>2021-01-20T14:28:35Z</time>
      </trkpt>
      <trkpt lat="45.06685" lon="6.04846">
        <ele>997.834</ele>
        <time>2020-04-05T10:51:30Z</time>
      </trkpt>
      <trkpt lat="45.06655" lon="6.04896">
        <ele>1015.622</ele>
        <time>2020-04-05T10:51:50Z</time>
      </trkpt>
      <trkpt lat="45.06678" lon="6.04979">
        <ele>1027.48</ele>
        <time>2020-04-05T10:52:10Z</time>
      </trkpt>
      <trkpt lat="45.06711" lon="6.05128">
        <ele>1046.994</ele>
        <time>2020-04-05T10:52:30Z</time>
      </trkpt>
      <trkpt lat="45.06699" lon="6.05292">
        <ele>1087.345</ele>
        <time>2020-04-05T10:52:50Z</time>
      </trkpt>
      <trkpt lat="45.06677" lon="6.05311">
        <ele>1108.132</ele>
        <time>2020-04-05T10:53:10Z</time>
      </trkpt>
      <trkpt lat="45.06656" lon="6.05244">
        <ele>1110.976</ele>
        <time>2020-04-05T10:53:30Z</time>
      </trkpt>
      <trkpt lat="45.06635" lon="6.05227">
        <ele>1118.133</ele>
        <time>2020-04-05T10:53:50Z</time>
      </trkpt>
      <trkpt lat="45.06612" lon="6.05189">
        <ele>1122.912</ele>
        <time>2020-04-05T10:54:10Z</time>
      </trkpt>
      <trkpt lat="45.06596" lon="6.05174">
        <ele>1128.232</ele>
        <time>2020-04-05T10:54:30Z</time>
      </trkpt>
      <trkpt lat="45.06551" lon="6.05136">
        <ele>1138.205</ele>
        <time>2020-04-05T10:54:50Z</time>
      </trkpt>
      <trkpt lat="45.0653" lon="6.05091">
        <ele>1140.508</ele>
        <time>2020-04-05T10:55:10Z</time>
      </trkpt>
      <trkpt lat="45.06521" lon="6.05058">
        <ele>1139.797</ele>
        <time>2020-04-05T10:55:30Z</time>
      </trkpt>
      <trkpt lat="45.06495" lon="6.05036">
        <ele>1144.595</ele>
        <time>2020-04-05T10:55:50Z</time>
      </trkpt>
      <trkpt lat="45.0647" lon="6.05032">
        <ele>1146.133</ele>
        <time>2020-04-05T10:56:10Z</time>
      </trkpt>
      <trkpt lat="45.06425" lon="6.05044">
        <ele>1155.857</ele>
        <time>2020-04-05T10:56:30Z</time>
      </trkpt>
      <trkpt lat="45.06395" lon="6.05034">
        <ele>1166.478</ele>
        <time>2020-04-05T10:56:50Z</time>
      </trkpt>
      <trkpt lat="45.06358" lon="6.04994">
        <ele>1169.465</ele>
        <time>2020-04-05T10:57:10Z</time>
      </trkpt>
      <trkpt lat="45.0631" lon="6.04978">
        <ele>1183.959</ele>
        <time>2020-04-05T10:57:30Z</time>
      </trkpt>
      <trkpt lat="45.06279" lon="6.04993">
        <ele>1197.676</ele>
        <time>2020-04-05T10:57:50Z</time>
      </trkpt>
      <trkpt lat="45.06262" lon="6.05011">
        <ele>1200.438</ele>
        <time>2020-04-05T10:58:10Z</time>
      </trkpt>
      <trkpt lat="45.06281" lon="6.05012">
        <ele>1204.67</ele>
        <time>2020-04-05T10:58:30Z</time>
      </trkpt>
      <trkpt lat="45.06263" lon="6.05038">
        <ele>1209.117</ele>
        <time>2020-04-05T10:58:50Z</time>
      </trkpt>
      <trkpt lat="45.06269" lon="6.05052">
        <ele>1215.308</ele>
        <time>2020-04-05T10:59:10Z</time>
      </trkpt>
      <trkpt lat="45.06295" lon="6.05044">
        <ele>1215.869</ele>
        <time>2020-04-05T10:59:30Z</time>
      </trkpt>
      <trkpt lat="45.06307" lon="6.05048">
        <ele>1217.577</ele>
        <time>2020-04-05T10:59:50Z</time>
      </trkpt>
      <trkpt lat="45.06289" lon="6.05073">
        <ele>1227.555</ele>
        <time>2020-04-05T11:00:10Z</time>
      </trkpt>
      <trkpt lat="45.06307" lon="6.051">
        <ele>1239.999</ele>
        <time>2020-04-05T11:00:30Z</time>
      </trkpt>
      <trkpt lat="45.06308" lon="6.05127">
        <ele>1249.45</ele>
        <time>2020-04-05T11:00:50Z</time>
      </trkpt>
      <trkpt lat="45.06318" lon="6.05153">
        <ele>1256.327</ele>
        <time>2020-04-05T11:01:10Z</time>
      </trkpt>
      <trkpt lat="45.06304" lon="6.05149">
        <ele>1257.521</ele>
        <time>2020-04-05T11:01:30Z</time>
      </trkpt>
      <trkpt lat="45.06324" lon="6.05212">
        <ele>1280.458</ele>
        <time>2020-04-05T11:01:50Z</time>
      </trkpt>
      <trkpt lat="45.06384" lon="6.05274">
        <ele>1293.659</ele>
        <time>2020-04-05T11:02:10Z</time>
      </trkpt>
      <trkpt lat="45.06418" lon="6.0529">
        <ele>1298.503</ele>
        <time>2020-04-05T11:02:30Z</time>
      </trkpt>
      <trkpt lat="45.06436" lon="6.05321">
        <ele>1307.123</ele>
        <time>2020-04-05T11:02:50Z</time>
      </trkpt>
      <trkpt lat="45.0641" lon="6.054">
        <ele>1327.208</ele>
        <time>2020-04-05T11:03:10Z</time>
      </trkpt>
      <trkpt lat="45.06407" lon="6.05425">
        <ele>1327.931</ele>
        <time>2020-04-05T11:03:30Z</time>
      </trkpt>
      <trkpt lat="45.06397" lon="6.05446">
        <ele>1337.389</ele>
        <time>2020-04-05T11:03:50Z</time>
      </trkpt>
      <trkpt lat="45.06401" lon="6.05487">
        <ele>1340.317</ele>
        <time>2020-04-05T11:04:10Z</time>
      </trkpt>
      <trkpt lat="45.06429" lon="6.05529">
        <ele>1338.211</ele>
        <time>2020-04-05T11:04:30Z</time>
      </trkpt>
      <trkpt lat="45.06435" lon="6.05558">
        <ele>1338.732</ele>
        <time>2020-04-05T11:04:50Z</time>
      </trkpt>
      <trkpt lat="45.06432" lon="6.05606">
        <ele>1343.779</ele>
        <time>2020-04-05T11:05:10Z</time>
      </trkpt>
      <trkpt lat="45.06417" lon="6.05629">
        <ele>1358.043</ele>
        <time>2020-04-05T11:05:30Z</time>
      </trkpt>
      <trkpt lat="45.06413" lon="6.05657">
        <ele>1363.16</ele>
        <time>2020-04-05T11:05:50Z</time>
      </trkpt>
      <trkpt lat="45.06418" lon="6.05671">
        <ele>1362.887</ele>
        <time>2020-04-05T11:06:10Z</time>
      </trkpt>
      <trkpt lat="45.06452" lon="6.05693">
        <ele>1357.542</ele>
        <time>2020-04-05T11:06:30Z</time>
      </trkpt>
      <trkpt lat="45.06458" lon="6.05714">
        <ele>1362.026</ele>
        <time>2020-04-05T11:06:50Z</time>
      </trkpt>
      <trkpt lat="45.06447" lon="6.05803">
        <ele>1387.908</ele>
        <time>2020-04-05T11:07:10Z</time>
      </trkpt>
      <trkpt lat="45.06456" lon="6.0588">
        <ele>1388.134</ele>
        <time>2020-04-05T11:07:30Z</time>
      </trkpt>
      <trkpt lat="45.06472" lon="6.05961">
        <ele>1390.582</ele>
        <time>2020-04-05T11:07:50Z</time>
      </trkpt>
      <trkpt lat="45.06497" lon="6.06019">
        <ele>1385.36</ele>
        <time>2020-04-05T11:08:10Z</time>
      </trkpt>
      <trkpt lat="45.06491" lon="6.06029">
        <ele>1387.854</ele>
        <time>2020-04-05T11:08:30Z</time>
      </trkpt>
      <trkpt lat="45.06485" lon="6.06026">
        <ele>1389.945</ele>
        <time>2020-04-05T11:08:50Z</time>
      </trkpt>
      <trkpt lat="45.06482" lon="6.06013">
        <ele>1390.152</ele>
        <time>2020-04-05T11:09:10Z</time>
      </trkpt>
      <trkpt lat="45.06462" lon="6.05971">
        <ele>1395.286</ele>
        <time>2020-04-05T11:09:30Z</time>
      </trkpt>
      <trkpt lat="45.06454" lon="6.05976">
        <ele>1399.473</ele>
        <time>2020-04-05T11:09:50Z</time>
      </trkpt>
      <trkpt lat="45.06456" lon="6.05992">
        <ele>1400.266</ele>
        <time>2020-04-05T11:10:10Z</time>
      </trkpt>
      <trkpt lat="45.0647" lon="6.06017">
        <ele>1395.129</ele>
        <time>2020-04-05T11:10:30Z</time>
      </trkpt>
      <trkpt lat="45.06479" lon="6.06061">
        <ele>1393.221</ele>
        <time>2020-04-05T11:10:50Z</time>
      </trkpt>
      <trkpt lat="45.06462" lon="6.06094">
        <ele>1402.108</ele>
        <time>2020-04-05T11:11:10Z</time>
      </trkpt>
      <trkpt lat="45.06462" lon="6.06117">
        <ele>1403.582</ele>
        <time>2020-04-05T11:11:30Z</time>
      </trkpt>
      <trkpt lat="45.06469" lon="6.06127">
        <ele>1403.26</ele>
        <time>2020-04-05T11:11:50Z</time>
      </trkpt>
      <trkpt lat="45.06499" lon="6.06123">
        <ele>1397.898</ele>
        <time>2020-04-05T11:12:10Z</time>
      </trkpt>
      <trkpt lat="45.06555" lon="6.06135">
        <ele>1404.842</ele>
        <time>2020-04-05T11:12:30Z</time>
      </trkpt>
      <trkpt lat="45.06627" lon="6.06129">
        <ele>1411.273</ele>
        <time>2020-04-05T11:12:50Z</time>
      </trkpt>
      <trkpt lat="45.06667" lon="6.06083">
        <ele>1413.05</ele>
        <time>2020-04-05T11:13:10Z</time>
      </trkpt>
      <trkpt lat="45.06752" lon="6.06029">
        <ele>1423.724</ele>
        <time>2020-04-05T11:13:30Z</time>
      </trkpt>
      <trkpt lat="45.06796" lon="6.06014">
        <ele>1431.941</ele>
        <time>2020-04-05T11:13:50Z</time>
      </trkpt>
      <trkpt lat="45.06823" lon="6.06072">
        <ele>1429.328</ele>
        <time>2020-04-05T11:14:10Z</time>
      </trkpt>
      <trkpt lat="45.06781" lon="6.06145">
        <ele>1430.289</ele>
        <time>2020-04-05T11:14:30Z</time>
      </trkpt>
      <trkpt lat="45.06767" lon="6.06199">
        <ele>1435.117</ele>
        <time>2020-04-05T11:14:50Z</time>
      </trkpt>
      <trkpt lat="45.06779" lon="6.06269">
        <ele>1443.708</ele>
        <time>2020-04-05T11:15:10Z</time>
      </trkpt>
      <trkpt lat="45.0677" lon="6.06323">
        <ele>1448.798</ele>
        <time>2020-04-05T11:15:30Z</time>
      </trkpt>
      <trkpt lat="45.0677" lon="6.06381">
        <ele>1454.416</ele>
        <time>2020-04-05T11:15:50Z</time>
      </trkpt>
      <trkpt lat="45.0684" lon="6.06379">
        <ele>1452.754</ele>
        <time>2020-04-05T11:16:10Z</time>
      </trkpt>
      <trkpt lat="45.06869" lon="6.06364">
        <ele>1454.918</ele>
        <time>2020-04-05T11:16:30Z</time>
      </trkpt>
      <trkpt lat="45.0691" lon="6.06362">
        <ele>1458.839</ele>
        <time>2020-04-05T11:16:50Z</time>
      </trkpt>
      <trkpt lat="45.06967" lon="6.06411">
        <ele>1465.836</ele>
        <time>2020-04-05T11:17:10Z</time>
      </trkpt>
      <trkpt lat="45.07119" lon="6.06439">
        <ele>1474.59</ele>
        <time>2020-04-05T11:17:30Z</time>
      </trkpt>
      <trkpt lat="45.07178" lon="6.0643">
        <ele>1476.327</ele>
        <time>2020-04-05T11:17:50Z</time>
      </trkpt>
      <trkpt lat="45.07248" lon="6.06426">
        <ele>1478.158</ele>
        <time>2020-04-05T11:18:10Z</time>
      </trkpt>
      <trkpt lat="45.07288" lon="6.06443">
        <ele>1482.052</ele>
        <time>2020-04-05T11:18:30Z</time>
      </trkpt>
      <trkpt lat="45.07346" lon="6.06417">
        <ele>1484.017</ele>
        <time>2020-04-05T11:18:50Z</time>
      </trkpt>
      <trkpt lat="45.07373" lon="6.06396">
        <ele>1481.308</ele>
        <time>2020-04-05T11:19:10Z</time>
      </trkpt>
      <trkpt lat="45.07429" lon="6.06407">
        <ele>1482.311</ele>
        <time>2020-04-05T11:19:30Z</time>
      </trkpt>
      <trkpt lat="45.07454" lon="6.06362">
        <ele>1481.419</ele>
        <time>2020-04-05T11:19:50Z</time>
      </trkpt>
      <trkpt lat="45.07457" lon="6.06321">
        <ele>1478.367</ele>
        <time>2020-04-05T11:20:10Z</time>
      </trkpt>
      <trkpt lat="45.07484" lon="6.06291">
        <ele>1483.981</ele>
        <time>2020-04-05T11:20:30Z</time>
      </trkpt>
      <trkpt lat="45.07542" lon="6.06308">
        <ele>1496.322</ele>
        <time>2020-04-05T11:20:50Z</time>
      </trkpt>
      <trkpt lat="45.07584" lon="6.06274">
        <ele>1494.379</ele>
        <time>2020-04-05T11:21:10Z</time>
      </trkpt>
      <trkpt lat="45.07678" lon="6.06293">
        <ele>1505.253</ele>
        <time>2020-04-05T11:21:30Z</time>
      </trkpt>
      <trkpt lat="45.07757" lon="6.06329">
        <ele>1508.09</ele>
        <time>2020-04-05T11:21:50Z</time>
      </trkpt>
      <trkpt lat="45.07787" lon="6.0636">
        <ele>1516.069</ele>
        <time>2020-04-05T11:22:10Z</time>
      </trkpt>
      <trkpt lat="45.07872" lon="6.06422">
        <ele>1517.504</ele>
        <time>2020-04-05T11:22:30Z</time>
      </trkpt>
      <trkpt lat="45.07917" lon="6.06426">
        <ele>1511.324</ele>
        <time>2020-04-05T11:22:50Z</time>
      </trkpt>
      <trkpt lat="45.07919" lon="6.06493">
        <ele>1520.108</ele>
        <time>2020-04-05T11:23:10Z</time>
      </trkpt>
      <trkpt lat="45.07926" lon="6.0652">
        <ele>1516.542</ele>
        <time>2020-04-05T11:23:30Z</time>
      </trkpt>
      <trkpt lat="45.07954" lon="6.06574">
        <ele>1505.16</ele>
        <time>2020-04-05T11:23:50Z</time>
      </trkpt>
      <trkpt lat="45.07967" lon="6.06617">
        <ele>1509.858</ele>
        <time>2020-04-05T11:24:10Z</time>
      </trkpt>
      <trkpt lat="45.07978" lon="6.06649">
        <ele>1508.052</ele>
        <time>2020-04-05T11:24:30Z</time>
      </trkpt>
      <trkpt lat="45.08011" lon="6.06678">
        <ele>1474.623</ele>
        <time>2020-04-05T11:24:50Z</time>
      </trkpt>
      <trkpt lat="45.08016" lon="6.06699">
        <ele>1472.78</ele>
        <time>2020-04-05T11:25:10Z</time>
      </trkpt>
      <trkpt lat="45.08023" lon="6.06706">
        <ele>1465.994</ele>
        <time>2020-04-05T11:25:30Z</time>
      </trkpt>
      <trkpt lat="45.08014" lon="6.06726">
        <ele>1478.291</ele>
        <time>2020-04-05T11:25:50Z</time>
      </trkpt>
      <trkpt lat="45.0803" lon="6.06785">
        <ele>1466.669</ele>
        <time>2020-04-05T11:26:10Z</time>
      </trkpt>
      <trkpt lat="45.08037" lon="6.06826">
        <ele>1461.904</ele>
        <time>2020-04-05T11:26:30Z</time>
      </trkpt>
      <trkpt lat="45.08059" lon="6.06835">
        <ele>1443.624</ele>
        <time>2020-04-05T11:26:50Z</time>
      </trkpt>
      <trkpt lat="45.0807" lon="6.06869">
        <ele>1439.008</ele>
        <time>2020-04-05T11:27:10Z</time>
      </trkpt>
      <trkpt lat="45.08074" lon="6.06849">
        <ele>1434.442</ele>
        <time>2020-04-05T11:27:30Z</time>
      </trkpt>
      <trkpt lat="45.0809" lon="6.06874">
        <ele>1427.57</ele>
        <time>2020-04-05T11:27:50Z</time>
      </trkpt>
      <trkpt lat="45.0811" lon="6.06917">
        <ele>1418.698</ele>
        <time>2020-04-05T11:28:10Z</time>
      </trkpt>
      <trkpt lat="45.08137" lon="6.06915">
        <ele>1422.512</ele>
        <time>2020-04-05T11:28:30Z</time>
      </trkpt>
      <trkpt lat="45.08128" lon="6.06993">
        <ele>1427.043</ele>
        <time>2020-04-05T11:28:50Z</time>
      </trkpt>
      <trkpt lat="45.08131" lon="6.0705">
        <ele>1431.19</ele>
        <time>2020-04-05T11:29:10Z</time>
      </trkpt>
      <trkpt lat="45.08144" lon="6.07105">
        <ele>1437.944</ele>
        <time>2020-04-05T11:29:30Z</time>
      </trkpt>
      <trkpt lat="45.08151" lon="6.07159">
        <ele>1441.481</ele>
        <time>2020-04-05T11:29:50Z</time>
      </trkpt>
      <trkpt lat="45.08164" lon="6.07184">
        <ele>1444.636</ele>
        <time>2020-04-05T11:30:10Z</time>
      </trkpt>
      <trkpt lat="45.08169" lon="6.07213">
        <ele>1446.917</ele>
        <time>2020-04-05T11:30:30Z</time>
      </trkpt>
      <trkpt lat="45.08183" lon="6.07249">
        <ele>1451.318</ele>
        <time>2020-04-05T11:30:50Z</time>
      </trkpt>
      <trkpt lat="45.08192" lon="6.07293">
        <ele>1453.108</ele>
        <time>2020-04-05T11:31:10Z</time>
      </trkpt>
      <trkpt lat="45.08203" lon="6.07303">
        <ele>1457.829</ele>
        <time>2020-04-05T11:31:30Z</time>
      </trkpt>
      <trkpt lat="45.08205" lon="6.07332">
        <ele>1459.777</ele>
        <time>2020-04-05T11:31:50Z</time>
      </trkpt>
      <trkpt lat="45.08225" lon="6.07411">
        <ele>1468.935</ele>
        <time>2020-04-05T11:32:10Z</time>
      </trkpt>
      <trkpt lat="45.08204" lon="6.07497">
        <ele>1469.879</ele>
        <time>2020-04-05T11:32:30Z</time>
      </trkpt>
      <trkpt lat="45.08198" lon="6.07544">
        <ele>1475.05</ele>
        <time>2020-04-05T11:32:50Z</time>
      </trkpt>
      <trkpt lat="45.08196" lon="6.07637">
        <ele>1483.877</ele>
        <time>2020-04-05T11:33:10Z</time>
      </trkpt>
      <trkpt lat="45.08189" lon="6.07691">
        <ele>1483.951</ele>
        <time>2020-04-05T11:33:30Z</time>
      </trkpt>
      <trkpt lat="45.0819" lon="6.07756">
        <ele>1489.068</ele>
        <time>2020-04-05T11:33:50Z</time>
      </trkpt>
      <trkpt lat="45.08183" lon="6.07828">
        <ele>1492.881</ele>
        <time>2020-04-05T11:34:10Z</time>
      </trkpt>
      <trkpt lat="45.0819" lon="6.07966">
        <ele>1504.361</ele>
        <time>2020-04-05T11:34:30Z</time>
      </trkpt>
      <trkpt lat="45.08156" lon="6.08171">
        <ele>1512.817</ele>
        <time>2020-04-05T11:34:50Z</time>
      </trkpt>
      <trkpt lat="45.08158" lon="6.08279">
        <ele>1523.008</ele>
        <time>2020-04-05T11:35:10Z</time>
      </trkpt>
      <trkpt lat="45.08154" lon="6.0831">
        <ele>1524.684</ele>
        <time>2020-04-05T11:35:30Z</time>
      </trkpt>
      <trkpt lat="45.08136" lon="6.08335">
        <ele>1521.862</ele>
        <time>2020-04-05T11:35:50Z</time>
      </trkpt>
      <trkpt lat="45.08132" lon="6.08367">
        <ele>1522.87</ele>
        <time>2020-04-05T11:36:10Z</time>
      </trkpt>
      <trkpt lat="45.08148" lon="6.0841">
        <ele>1526.394</ele>
        <time>2020-04-05T11:36:30Z</time>
      </trkpt>
      <trkpt lat="45.08145" lon="6.08461">
        <ele>1528.825</ele>
        <time>2020-04-05T11:36:50Z</time>
      </trkpt>
      <trkpt lat="45.08135" lon="6.08499">
        <ele>1529.662</ele>
        <time>2020-04-05T11:37:10Z</time>
      </trkpt>
      <trkpt lat="45.08133" lon="6.08549">
        <ele>1534.376</ele>
        <time>2020-04-05T11:37:30Z</time>
      </trkpt>
      <trkpt lat="45.08126" lon="6.08579">
        <ele>1536.323</ele>
        <time>2020-04-05T11:37:50Z</time>
      </trkpt>
      <trkpt lat="45.08132" lon="6.08616">
        <ele>1537.578</ele>
        <time>2020-04-05T11:38:10Z</time>
      </trkpt>
      <trkpt lat="45.0813" lon="6.0863">
        <ele>1538.033</ele>
        <time>2020-04-05T11:38:30Z</time>
      </trkpt>
      <trkpt lat="45.08135" lon="6.08678">
        <ele>1542.626</ele>
        <time>2020-04-05T11:38:50Z</time>
      </trkpt>
      <trkpt lat="45.0813" lon="6.087">
        <ele>1545.908</ele>
        <time>2020-04-05T11:39:10Z</time>
      </trkpt>
      <trkpt lat="45.0812" lon="6.08725">
        <ele>1548.463</ele>
        <time>2020-04-05T11:39:30Z</time>
      </trkpt>
      <trkpt lat="45.08098" lon="6.0875">
        <ele>1548.561</ele>
        <time>2020-04-05T11:39:50Z</time>
      </trkpt>
      <trkpt lat="45.08083" lon="6.08785">
        <ele>1549.099</ele>
        <time>2020-04-05T11:40:10Z</time>
      </trkpt>
      <trkpt lat="45.08076" lon="6.08839">
        <ele>1551.933</ele>
        <time>2020-04-05T11:40:30Z</time>
      </trkpt>
      <trkpt lat="45.08064" lon="6.0888">
        <ele>1553.214</ele>
        <time>2020-04-05T11:40:50Z</time>
      </trkpt>
      <trkpt lat="45.08066" lon="6.08941">
        <ele>1556.731</ele>
        <time>2020-04-05T11:41:10Z</time>
      </trkpt>
      <trkpt lat="45.0806" lon="6.08976">
        <ele>1556.725</ele>
        <time>2020-04-05T11:41:30Z</time>
      </trkpt>
      <trkpt lat="45.08058" lon="6.09063">
        <ele>1558.032</ele>
        <time>2020-04-05T11:41:50Z</time>
      </trkpt>
      <trkpt lat="45.08085" lon="6.09134">
        <ele>1564.263</ele>
        <time>2020-04-05T11:42:10Z</time>
      </trkpt>
      <trkpt lat="45.08083" lon="6.09184">
        <ele>1563.644</ele>
        <time>2020-04-05T11:42:30Z</time>
      </trkpt>
      <trkpt lat="45.08069" lon="6.09244">
        <ele>1565.818</ele>
        <time>2020-04-05T11:42:50Z</time>
      </trkpt>
      <trkpt lat="45.08067" lon="6.0929">
        <ele>1567.308</ele>
        <time>2020-04-05T11:43:10Z</time>
      </trkpt>
      <trkpt lat="45.08077" lon="6.09341">
        <ele>1569.142</ele>
        <time>2020-04-05T11:43:30Z</time>
      </trkpt>
      <trkpt lat="45.08083" lon="6.09399">
        <ele>1571.79</ele>
        <time>2020-04-05T11:43:50Z</time>
      </trkpt>
      <trkpt lat="45.081" lon="6.09457">
        <ele>1577.718</ele>
        <time>2020-04-05T11:44:10Z</time>
      </trkpt>
      <trkpt lat="45.0812" lon="6.09478">
        <ele>1581.482</ele>
        <time>2020-04-05T11:44:30Z</time>
      </trkpt>
      <trkpt lat="45.08122" lon="6.0952">
        <ele>1582.793</ele>
        <time>2020-04-05T11:44:50Z</time>
      </trkpt>
      <trkpt lat="45.08128" lon="6.09548">
        <ele>1585.65</ele>
        <time>2020-04-05T11:45:10Z</time>
      </trkpt>
      <trkpt lat="45.08126" lon="6.09575">
        <ele>1587.074</ele>
        <time>2020-04-05T11:45:30Z</time>
      </trkpt>
      <trkpt lat="45.08128" lon="6.09585">
        <ele>1587.981</ele>
        <time>2020-04-05T11:45:50Z</time>
      </trkpt>
      <trkpt lat="45.08128" lon="6.09605">
        <ele>1588.517</ele>
        <time>2020-04-05T11:46:10Z</time>
      </trkpt>
      <trkpt lat="45.0815" lon="6.09679">
        <ele>1592.287</ele>
        <time>2020-04-05T11:46:30Z</time>
      </trkpt>
      <trkpt lat="45.08151" lon="6.09741">
        <ele>1594.615</ele>
        <time>2020-04-05T11:46:50Z</time>
      </trkpt>
      <trkpt lat="45.08136" lon="6.09868">
        <ele>1600.008</ele>
        <time>2020-04-05T11:47:10Z</time>
      </trkpt>
      <trkpt lat="45.08122" lon="6.09897">
        <ele>1602.437</ele>
        <time>2020-04-05T11:47:30Z</time>
      </trkpt>
      <trkpt lat="45.08119" lon="6.09925">
        <ele>1604.375</ele>
        <time>2020-04-05T11:47:50Z</time>
      </trkpt>
      <trkpt lat="45.08122" lon="6.09969">
        <ele>1610.633</ele>
        <time>2020-04-05T11:48:10Z</time>
      </trkpt>
      <trkpt lat="45.08111" lon="6.10011">
        <ele>1611.237</ele>
        <time>2020-04-05T11:48:30Z</time>
      </trkpt>
      <trkpt lat="45.08102" lon="6.10073">
        <ele>1617.478</ele>
        <time>2020-04-05T11:48:50Z</time>
      </trkpt>
      <trkpt lat="45.08089" lon="6.10104">
        <ele>1619.125</ele>
        <time>2020-04-05T11:49:10Z</time>
      </trkpt>
      <trkpt lat="45.08076" lon="6.10126">
        <ele>1621.539</ele>
        <time>2020-04-05T11:49:30Z</time>
      </trkpt>
      <trkpt lat="45.08057" lon="6.10218">
        <ele>1629.896</ele>
        <time>2020-04-05T11:49:50Z</time>
      </trkpt>
      <trkpt lat="45.0805" lon="6.10233">
        <ele>1631.462</ele>
        <time>2020-04-05T11:50:10Z</time>
      </trkpt>
      <trkpt lat="45.08041" lon="6.10263">
        <ele>1634.883</ele>
        <time>2020-04-05T11:50:30Z</time>
      </trkpt>
      <trkpt lat="45.07987" lon="6.10325">
        <ele>1640.611</ele>
        <time>2020-04-05T11:50:50Z</time>
      </trkpt>
      <trkpt lat="45.0796" lon="6.10397">
        <ele>1642.908</ele>
        <time>2020-04-05T11:51:10Z</time>
      </trkpt>
      <trkpt lat="45.07905" lon="6.10462">
        <ele>1645.862</ele>
        <time>2020-04-05T11:51:30Z</time>
      </trkpt>
      <trkpt lat="45.07877" lon="6.10533">
        <ele>1649.48</ele>
        <time>2020-04-05T11:51:50Z</time>
      </trkpt>
      <trkpt lat="45.07837" lon="6.10636">
        <ele>1658.318</ele>
        <time>2020-04-05T11:52:10Z</time>
      </trkpt>
      <trkpt lat="45.07825" lon="6.10717">
        <ele>1666.612</ele>
        <time>2020-04-05T11:52:30Z</time>
      </trkpt>
      <trkpt lat="45.07836" lon="6.10771">
        <ele>1668.963</ele>
        <time>2020-04-05T11:52:50Z</time>
      </trkpt>
      <trkpt lat="45.07871" lon="6.10816">
        <ele>1677.13</ele>
        <time>2020-04-05T11:53:10Z</time>
      </trkpt>
      <trkpt lat="45.07898" lon="6.10876">
        <ele>1678.864</ele>
        <time>2020-04-05T11:53:30Z</time>
      </trkpt>
      <trkpt lat="45.07913" lon="6.10937">
        <ele>1684.421</ele>
        <time>2020-04-05T11:53:50Z</time>
      </trkpt>
      <trkpt lat="45.07905" lon="6.11026">
        <ele>1689.867</ele>
        <time>2020-04-05T11:54:10Z</time>
      </trkpt>
      <trkpt lat="45.07905" lon="6.11106">
        <ele>1694.381</ele>
        <time>2020-04-05T11:54:30Z</time>
      </trkpt>
      <trkpt lat="45.07874" lon="6.1126">
        <ele>1698.519</ele>
        <time>2020-04-05T11:54:50Z</time>
      </trkpt>
      <trkpt lat="45.0787" lon="6.11332">
        <ele>1702.808</ele>
        <time>2020-04-05T11:55:10Z</time>
      </trkpt>
      <trkpt lat="45.07851" lon="6.11457">
        <ele>1707.122</ele>
        <time>2020-04-05T11:55:30Z</time>
      </trkpt>
      <trkpt lat="45.07855" lon="6.11546">
        <ele>1713.79</ele>
        <time>2020-04-05T11:55:50Z</time>
      </trkpt>
      <trkpt lat="45.07846" lon="6.11637">
        <ele>1714.478</ele>
        <time>2020-04-05T11:56:10Z</time>
      </trkpt>
      <trkpt lat="45.0782" lon="6.11735">
        <ele>1721.622</ele>
        <time>2020-04-05T11:56:30Z</time>
      </trkpt>
      <trkpt lat="45.07821" lon="6.11772">
        <ele>1724.413</ele>
        <time>2020-04-05T11:56:50Z</time>
      </trkpt>
      <trkpt lat="45.07808" lon="6.11831">
        <ele>1724.42</ele>
        <time>2020-04-05T11:57:10Z</time>
      </trkpt>
      <trkpt lat="45.07803" lon="6.11898">
        <ele>1727.394</ele>
        <time>2020-04-05T11:57:30Z</time>
      </trkpt>
      <trkpt lat="45.07812" lon="6.11969">
        <ele>1732.551</ele>
        <time>2020-04-05T11:57:50Z</time>
      </trkpt>
      <trkpt lat="45.07813" lon="6.12044">
        <ele>1742.539</ele>
        <time>2020-04-05T11:58:10Z</time>
      </trkpt>
      <trkpt lat="45.07832" lon="6.1208">
        <ele>1742.201</ele>
        <time>2020-04-05T11:58:30Z</time>
      </trkpt>
      <trkpt lat="45.07865" lon="6.1234">
        <ele>1756.621</ele>
        <time>2020-04-05T11:58:50Z</time>
      </trkpt>
      <trkpt lat="45.07908" lon="6.12405">
        <ele>1760.708</ele>
        <time>2020-04-05T11:59:10Z</time>
      </trkpt>
      <trkpt lat="45.07916" lon="6.12472">
        <ele>1767.159</ele>
        <time>2020-04-05T11:59:30Z</time>
      </trkpt>
      <trkpt lat="45.07932" lon="6.12509">
        <ele>1769.447</ele>
        <time>2020-04-05T11:59:50Z</time>
      </trkpt>
      <trkpt lat="45.07944" lon="6.12543">
        <ele>1772.635</ele>
        <time>2020-04-05T12:00:10Z</time>
      </trkpt>
      <trkpt lat="45.07983" lon="6.12587">
        <ele>1774.839</ele>
        <time>2020-04-05T12:00:30Z</time>
      </trkpt>
      <trkpt lat="45.08024" lon="6.12673">
        <ele>1782.33</ele>
        <time>2020-04-05T12:00:50Z</time>
      </trkpt>
      <trkpt lat="45.08056" lon="6.12712">
        <ele>1786.517</ele>
        <time>2020-04-05T12:01:10Z</time>
      </trkpt>
      <trkpt lat="45.08079" lon="6.12759">
        <ele>1791.821</ele>
        <time>2020-04-05T12:01:30Z</time>
      </trkpt>
      <trkpt lat="45.08105" lon="6.12802">
        <ele>1794.188</ele>
        <time>2020-04-05T12:01:50Z</time>
      </trkpt>
      <trkpt lat="45.08132" lon="6.12894">
        <ele>1799.788</ele>
        <time>2020-04-05T12:02:10Z</time>
      </trkpt>
      <trkpt lat="45.08133" lon="6.12973">
        <ele>1806.724</ele>
        <time>2020-04-05T12:02:30Z</time>
      </trkpt>
      <trkpt lat="45.08085" lon="6.13059">
        <ele>1816.926</ele>
        <time>2020-04-05T12:02:50Z</time>
      </trkpt>
      <trkpt lat="45.08081" lon="6.13094">
        <ele>1818.808</ele>
        <time>2020-04-05T12:03:10Z</time>
      </trkpt>
      <trkpt lat="45.0811" lon="6.13156">
        <ele>1820.054</ele>
        <time>2020-04-05T12:03:30Z</time>
      </trkpt>
      <trkpt lat="45.08141" lon="6.13179">
        <ele>1826.062</ele>
        <time>2020-04-05T12:03:50Z</time>
      </trkpt>
      <trkpt lat="45.08099" lon="6.13212">
        <ele>1829.23</ele>
        <time>2020-04-05T12:04:10Z</time>
      </trkpt>
      <trkpt lat="45.08058" lon="6.1321">
        <ele>1832.394</ele>
        <time>2020-04-05T12:04:30Z</time>
      </trkpt>
      <trkpt lat="45.08027" lon="6.13164">
        <ele>1832.115</ele>
        <time>2020-04-05T12:04:50Z</time>
      </trkpt>
      <trkpt lat="45.08009" lon="6.13116">
        <ele>1839.412</ele>
        <time>2020-04-05T12:05:10Z</time>
      </trkpt>
      <trkpt lat="45.08008" lon="6.1309">
        <ele>1842.396</ele>
        <time>2020-04-05T12:05:30Z</time>
      </trkpt>
      <trkpt lat="45.07993" lon="6.13094">
        <ele>1847.183</ele>
        <time>2020-04-05T12:05:50Z</time>
      </trkpt>
      <trkpt lat="45.07969" lon="6.13179">
        <ele>1848.937</ele>
        <time>2020-04-05T12:06:10Z</time>
      </trkpt>
      <trkpt lat="45.0797" lon="6.13259">
        <ele>1854.349</ele>
        <time>2020-04-05T12:06:30Z</time>
      </trkpt>
      <trkpt lat="45.07993" lon="6.13311">
        <ele>1858.113</ele>
        <time>2020-04-05T12:06:50Z</time>
      </trkpt>
      <trkpt lat="45.08064" lon="6.13568">
        <ele>1878.808</ele>
        <time>2020-04-05T12:07:10Z</time>
      </trkpt>
      <trkpt lat="45.08076" lon="6.13742">
        <ele>1892.389</ele>
        <time>2020-04-05T12:07:30Z</time>
      </trkpt>
      <trkpt lat="45.08102" lon="6.13904">
        <ele>1906.017</ele>
        <time>2020-04-05T12:07:50Z</time>
      </trkpt>
      <trkpt lat="45.08171" lon="6.14108">
        <ele>1922.635</ele>
        <time>2020-04-05T12:08:10Z</time>
      </trkpt>
      <trkpt lat="45.08189" lon="6.14202">
        <ele>1933.089</ele>
        <time>2020-04-05T12:08:30Z</time>
      </trkpt>
      <trkpt lat="45.0825" lon="6.14298">
        <ele>1941.05</ele>
        <time>2020-04-05T12:08:50Z</time>
      </trkpt>
      <trkpt lat="45.08277" lon="6.14348">
        <ele>1947.097</ele>
        <time>2020-04-05T12:09:10Z</time>
      </trkpt>
      <trkpt lat="45.08349" lon="6.14454">
        <ele>1958.851</ele>
        <time>2020-04-05T12:09:30Z</time>
      </trkpt>
      <trkpt lat="45.08402" lon="6.14547">
        <ele>1966.358</ele>
        <time>2020-04-05T12:09:50Z</time>
      </trkpt>
      <trkpt lat="45.08517" lon="6.14719">
        <ele>1979.213</ele>
        <time>2020-04-05T12:10:10Z</time>
      </trkpt>
      <trkpt lat="45.0858" lon="6.14776">
        <ele>1984.043</ele>
        <time>2020-04-05T12:10:30Z</time>
      </trkpt>
      <trkpt lat="45.08619" lon="6.14836">
        <ele>1988.207</ele>
        <time>2020-04-05T12:10:50Z</time>
      </trkpt>
      <trkpt lat="45.08674" lon="6.14882">
        <ele>1996.208</ele>
        <time>2020-04-05T12:11:10Z</time>
      </trkpt>
      <trkpt lat="45.08716" lon="6.14904">
        <ele>1999.197</ele>
        <time>2020-04-05T12:11:30Z</time>
      </trkpt>
      <trkpt lat="45.08799" lon="6.14916">
        <ele>1996.085</ele>
        <time>2020-04-05T12:11:50Z</time>
      </trkpt>
      <trkpt lat="45.08872" lon="6.14945">
        <ele>1990.043</ele>
        <time>2020-04-05T12:12:10Z</time>
      </trkpt>
      <trkpt lat="45.08909" lon="6.14913">
        <ele>1989.027</ele>
        <time>2020-04-05T12:12:30Z</time>
      </trkpt>
      <trkpt lat="45.08951" lon="6.14921">
        <ele>1982.488</ele>
        <time>2020-04-05T12:12:50Z</time>
      </trkpt>
      <trkpt lat="45.09024" lon="6.14867">
        <ele>1983.895</ele>
        <time>2020-04-05T12:13:10Z</time>
      </trkpt>
      <trkpt lat="45.09045" lon="6.14869">
        <ele>1980.639</ele>
        <time>2020-04-05T12:13:30Z</time>
      </trkpt>
      <trkpt lat="45.08994" lon="6.14927">
        <ele>1972.646</ele>
        <time>2020-04-05T12:13:50Z</time>
      </trkpt>
      <trkpt lat="45.08996" lon="6.14952">
        <ele>1965.588</ele>
        <time>2020-04-05T12:14:10Z</time>
      </trkpt>
      <trkpt lat="45.09008" lon="6.14945">
        <ele>1961.824</ele>
        <time>2020-04-05T12:14:30Z</time>
      </trkpt>
      <trkpt lat="45.09025" lon="6.14919">
        <ele>1964.226</ele>
        <time>2020-04-05T12:14:50Z</time>
      </trkpt>
      <trkpt lat="45.09093" lon="6.14896">
        <ele>1958.008</ele>
        <time>2020-04-05T12:15:10Z</time>
      </trkpt>
      <trkpt lat="45.09128" lon="6.14921">
        <ele>1953.994</ele>
        <time>2020-04-05T12:15:30Z</time>
      </trkpt>
      <trkpt lat="45.09176" lon="6.14979">
        <ele>1943.872</ele>
        <time>2020-04-05T12:15:50Z</time>
      </trkpt>
      <trkpt lat="45.09125" lon="6.14989">
        <ele>1920.68</ele>
        <time>2020-04-05T12:16:10Z</time>
      </trkpt>
      <trkpt lat="45.09149" lon="6.15035">
        <ele>1911.794</ele>
        <time>2020-04-05T12:16:30Z</time>
      </trkpt>
      <trkpt lat="45.09156" lon="6.15106">
        <ele>1891.475</ele>
        <time>2020-04-05T12:16:50Z</time>
      </trkpt>
      <trkpt lat="45.09178" lon="6.15117">
        <ele>1892.482</ele>
        <time>2020-04-05T12:17:10Z</time>
      </trkpt>
      <trkpt lat="45.09208" lon="6.15125">
        <ele>1891.216</ele>
        <time>2020-04-05T12:17:30Z</time>
      </trkpt>
      <trkpt lat="45.09184" lon="6.15148">
        <ele>1878.753</ele>
        <time>2020-04-05T12:17:50Z</time>
      </trkpt>
      <trkpt lat="45.09198" lon="6.15153">
        <ele>1875.824</ele>
        <time>2020-04-05T12:18:10Z</time>
      </trkpt>
      <trkpt lat="45.09188" lon="6.1516">
        <ele>1872.404</ele>
        <time>2020-04-05T12:18:30Z</time>
      </trkpt>
      <trkpt lat="45.09198" lon="6.15163">
        <ele>1871.214</ele>
        <time>2020-04-05T12:18:50Z</time>
      </trkpt>
      <trkpt lat="45.09185" lon="6.15179">
        <ele>1863.308</ele>
        <time>2020-04-05T12:19:10Z</time>
      </trkpt>
      <trkpt lat="45.09219" lon="6.1519">
        <ele>1858.958</ele>
        <time>2020-04-05T12:19:30Z</time>
      </trkpt>
      <trkpt lat="45.09228" lon="6.15211">
        <ele>1848.766</ele>
        <time>2020-04-05T12:19:50Z</time>
      </trkpt>
      <trkpt lat="45.0926" lon="6.15227">
        <ele>1841.114</ele>
        <time>2020-04-05T12:20:10Z</time>
      </trkpt>
      <trkpt lat="45.09291" lon="6.15259">
        <ele>1826.368</ele>
        <time>2020-04-05T12:20:30Z</time>
      </trkpt>
      <trkpt lat="45.09269" lon="6.15283">
        <ele>1810.549</ele>
        <time>2020-04-05T12:20:50Z</time>
      </trkpt>
      <trkpt lat="45.09233" lon="6.15297">
        <ele>1799.896</ele>
        <time>2020-04-05T12:21:10Z</time>
      </trkpt>
      <trkpt lat="45.09203" lon="6.15296">
        <ele>1794.79</ele>
        <time>2020-04-05T12:21:30Z</time>
      </trkpt>
      <trkpt lat="45.09237" lon="6.15326">
        <ele>1786.127</ele>
        <time>2020-04-05T12:21:50Z</time>
      </trkpt>
      <trkpt lat="45.09216" lon="6.15329">
        <ele>1781.143</ele>
        <time>2020-04-05T12:22:10Z</time>
      </trkpt>
      <trkpt lat="45.09233" lon="6.15346">
        <ele>1776.564</ele>
        <time>2020-04-05T12:22:30Z</time>
      </trkpt>
      <trkpt lat="45.09216" lon="6.15361">
        <ele>1767.01</ele>
        <time>2020-04-05T12:22:50Z</time>
      </trkpt>
      <trkpt lat="45.09197" lon="6.15365">
        <ele>1760.808</ele>
        <time>2020-04-05T12:23:10Z</time>
      </trkpt>
      <trkpt lat="45.09174" lon="6.15377">
        <ele>1751.75</ele>
        <time>2020-04-05T12:23:30Z</time>
      </trkpt>
      <trkpt lat="45.09142" lon="6.15374">
        <ele>1746.868</ele>
        <time>2020-04-05T12:23:50Z</time>
      </trkpt>
      <trkpt lat="45.09199" lon="6.15451">
        <ele>1727.196</ele>
        <time>2020-04-05T12:24:10Z</time>
      </trkpt>
      <trkpt lat="45.09243" lon="6.15484">
        <ele>1721.56</ele>
        <time>2020-04-05T12:24:30Z</time>
      </trkpt>
      <trkpt lat="45.09215" lon="6.15488">
        <ele>1714.041</ele>
        <time>2020-04-05T12:24:50Z</time>
      </trkpt>
      <trkpt lat="45.09185" lon="6.15481">
        <ele>1711.488</ele>
        <time>2020-04-05T12:25:10Z</time>
      </trkpt>
      <trkpt lat="45.09207" lon="6.15514">
        <ele>1701.752</ele>
        <time>2020-04-05T12:25:30Z</time>
      </trkpt>
      <trkpt lat="45.09239" lon="6.1555">
        <ele>1694.919</ele>
        <time>2020-04-05T12:25:50Z</time>
      </trkpt>
      <trkpt lat="45.09243" lon="6.1557">
        <ele>1689.881</ele>
        <time>2020-04-05T12:26:10Z</time>
      </trkpt>
      <trkpt lat="45.09232" lon="6.15608">
        <ele>1676.361</ele>
        <time>2020-04-05T12:26:30Z</time>
      </trkpt>
      <trkpt lat="45.09226" lon="6.15613">
        <ele>1673.417</ele>
        <time>2020-04-05T12:26:50Z</time>
      </trkpt>
      <trkpt lat="45.09222" lon="6.15626">
        <ele>1668.508</ele>
        <time>2020-04-05T12:27:10Z</time>
      </trkpt>
      <trkpt lat="45.09208" lon="6.15643">
        <ele>1660.954</ele>
        <time>2020-04-05T12:27:30Z</time>
      </trkpt>
      <trkpt lat="45.09184" lon="6.15713">
        <ele>1640.692</ele>
        <time>2020-04-05T12:27:50Z</time>
      </trkpt>
      <trkpt lat="45.09154" lon="6.15746">
        <ele>1632.32</ele>
        <time>2020-04-05T12:28:10Z</time>
      </trkpt>
      <trkpt lat="45.09162" lon="6.1576">
        <ele>1629.864</ele>
        <time>2020-04-05T12:28:30Z</time>
      </trkpt>
      <trkpt lat="45.09159" lon="6.15774">
        <ele>1627.175</ele>
        <time>2020-04-05T12:28:50Z</time>
      </trkpt>
      <trkpt lat="45.09173" lon="6.15777">
        <ele>1626.032</ele>
        <time>2020-04-05T12:29:10Z</time>
      </trkpt>
      <trkpt lat="45.09157" lon="6.15817">
        <ele>1617.056</ele>
        <time>2020-04-05T12:29:30Z</time>
      </trkpt>
      <trkpt lat="45.09168" lon="6.15839">
        <ele>1611.233</ele>
        <time>2020-04-05T12:29:50Z</time>
      </trkpt>
      <trkpt lat="45.09165" lon="6.15858">
        <ele>1607.869</ele>
        <time>2020-04-05T12:30:10Z</time>
      </trkpt>
      <trkpt lat="45.09146" lon="6.15864">
        <ele>1609.504</ele>
        <time>2020-04-05T12:30:30Z</time>
      </trkpt>
      <trkpt lat="45.09128" lon="6.15904">
        <ele>1602.724</ele>
        <time>2020-04-05T12:30:50Z</time>
      </trkpt>
      <trkpt lat="45.09141" lon="6.15941">
        <ele>1593.008</ele>
        <time>2020-04-05T12:31:10Z</time>
      </trkpt>
      <trkpt lat="45.09098" lon="6.16064">
        <ele>1563.392</ele>
        <time>2020-04-05T12:31:30Z</time>
      </trkpt>
      <trkpt lat="45.09096" lon="6.16105">
        <ele>1549.44</ele>
        <time>2020-04-05T12:31:50Z</time>
      </trkpt>
      <trkpt lat="45.09058" lon="6.16232">
        <ele>1524.118</ele>
        <time>2020-04-05T12:32:10Z</time>
      </trkpt>
      <trkpt lat="45.09048" lon="6.1625">
        <ele>1520.042</ele>
        <time>2020-04-05T12:32:30Z</time>
      </trkpt>
      <trkpt lat="45.09047" lon="6.16307">
        <ele>1504.313</ele>
        <time>2020-04-05T12:32:50Z</time>
      </trkpt>
      <trkpt lat="45.09036" lon="6.16344">
        <ele>1497.23</ele>
        <time>2020-04-05T12:33:10Z</time>
      </trkpt>
      <trkpt lat="45.09021" lon="6.16376">
        <ele>1491.914</ele>
        <time>2020-04-05T12:33:30Z</time>
      </trkpt>
      <trkpt lat="45.09012" lon="6.16401">
        <ele>1486.721</ele>
        <time>2020-04-05T12:33:50Z</time>
      </trkpt>
      <trkpt lat="45.08975" lon="6.16429">
        <ele>1478.675</ele>
        <time>2020-04-05T12:34:10Z</time>
      </trkpt>
      <trkpt lat="45.08952" lon="6.16429">
        <ele>1473.328</ele>
        <time>2020-04-05T12:34:30Z</time>
      </trkpt>
      <trkpt lat="45.08894" lon="6.16372">
        <ele>1463.72</ele>
        <time>2020-04-05T12:34:50Z</time>
      </trkpt>
      <trkpt lat="45.08862" lon="6.1635">
        <ele>1460.408</ele>
        <time>2020-04-05T12:35:10Z</time>
      </trkpt>
      <trkpt lat="45.08818" lon="6.16339">
        <ele>1453.873</ele>
        <time>2020-04-05T12:35:30Z</time>
      </trkpt>
      <trkpt lat="45.08747" lon="6.16287">
        <ele>1448.821</ele>
        <time>2020-04-05T12:35:50Z</time>
      </trkpt>
      <trkpt lat="45.08724" lon="6.16284">
        <ele>1445.189</ele>
        <time>2020-04-05T12:36:10Z</time>
      </trkpt>
      <trkpt lat="45.08701" lon="6.16298">
        <ele>1441.023</ele>
        <time>2020-04-05T12:36:30Z</time>
      </trkpt>
      <trkpt lat="45.08687" lon="6.16337">
        <ele>1437.074</ele>
        <time>2020-04-05T12:36:50Z</time>
      </trkpt>
      <trkpt lat="45.08665" lon="6.16348">
        <ele>1430.391</ele>
        <time>2020-04-05T12:37:10Z</time>
      </trkpt>
      <trkpt lat="45.08641" lon="6.16341">
        <ele>1423.955</ele>
        <time>2020-04-05T12:37:30Z</time>
      </trkpt>
      <trkpt lat="45.08621" lon="6.16317">
        <ele>1419.822</ele>
        <time>2020-04-05T12:37:50Z</time>
      </trkpt>
      <trkpt lat="45.08581" lon="6.16292">
        <ele>1414.395</ele>
        <time>2020-04-05T12:38:10Z</time>
      </trkpt>
      <trkpt lat="45.08558" lon="6.16294">
        <ele>1412.149</ele>
        <time>2020-04-05T12:38:30Z</time>
      </trkpt>
      <trkpt lat="45.08439" lon="6.16291">
        <ele>1402.923</ele>
        <time>2020-04-05T12:38:50Z</time>
      </trkpt>
      <trkpt lat="45.08414" lon="6.16309">
        <ele>1398.508</ele>
        <time>2020-04-05T12:39:10Z</time>
      </trkpt>
      <trkpt lat="45.08359" lon="6.16279">
        <ele>1397.645</ele>
        <time>2020-04-05T12:39:30Z</time>
      </trkpt>
      <trkpt lat="45.08284" lon="6.16185">
        <ele>1402.243</ele>
        <time>2020-04-05T12:39:50Z</time>
      </trkpt>
      <trkpt lat="45.08249" lon="6.16157">
        <ele>1400.231</ele>
        <time>2020-04-05T12:40:10Z</time>
      </trkpt>
      <trkpt lat="45.08244" lon="6.16133">
        <ele>1403.465</ele>
        <time>2020-04-05T12:40:30Z</time>
      </trkpt>
      <trkpt lat="45.08188" lon="6.16087">
        <ele>1403.736</ele>
        <time>2020-04-05T12:40:50Z</time>
      </trkpt>
      <trkpt lat="45.08163" lon="6.1604">
        <ele>1406.513</ele>
        <time>2020-04-05T12:41:10Z</time>
      </trkpt>
      <trkpt lat="45.08121" lon="6.15946">
        <ele>1412.047</ele>
        <time>2020-04-05T12:41:30Z</time>
      </trkpt>
      <trkpt lat="45.08062" lon="6.15924">
        <ele>1409.974</ele>
        <time>2020-04-05T12:41:50Z</time>
      </trkpt>
      <trkpt lat="45.07924" lon="6.15796">
        <ele>1417.949</ele>
        <time>2020-04-05T12:42:10Z</time>
      </trkpt>
      <trkpt lat="45.07881" lon="6.15781">
        <ele>1414.502</ele>
        <time>2020-04-05T12:42:30Z</time>
      </trkpt>
      <trkpt lat="45.07833" lon="6.15746">
        <ele>1412.722</ele>
        <time>2020-04-05T12:42:50Z</time>
      </trkpt>
      <trkpt lat="45.07798" lon="6.15735">
        <ele>1409.508</ele>
        <time>2020-04-05T12:43:10Z</time>
      </trkpt>
      <trkpt lat="45.07707" lon="6.15761">
        <ele>1399.02</ele>
        <time>2020-04-05T12:43:30Z</time>
      </trkpt>
      <trkpt lat="45.07622" lon="6.15741">
        <ele>1405.178</ele>
        <time>2020-04-05T12:43:50Z</time>
      </trkpt>
      <trkpt lat="45.07571" lon="6.15713">
        <ele>1409.436</ele>
        <time>2020-04-05T12:44:10Z</time>
      </trkpt>
      <trkpt lat="45.07541" lon="6.15718">
        <ele>1408.34</ele>
        <time>2020-04-05T12:44:30Z</time>
      </trkpt>
      <trkpt lat="45.07502" lon="6.15749">
        <ele>1403.181</ele>
        <time>2020-04-05T12:44:50Z</time>
      </trkpt>
      <trkpt lat="45.07471" lon="6.15749">
        <ele>1400.838</ele>
        <time>2020-04-05T12:45:10Z</time>
      </trkpt>
      <trkpt lat="45.07365" lon="6.15671">
        <ele>1386.842</ele>
        <time>2020-04-05T12:45:30Z</time>
      </trkpt>
      <trkpt lat="45.0731" lon="6.15678">
        <ele>1375.539</ele>
        <time>2020-04-05T12:45:50Z</time>
      </trkpt>
      <trkpt lat="45.0719" lon="6.15584">
        <ele>1366.662</ele>
        <time>2020-04-05T12:46:10Z</time>
      </trkpt>
      <trkpt lat="45.07155" lon="6.15542">
        <ele>1361.783</ele>
        <time>2020-04-05T12:46:30Z</time>
      </trkpt>
      <trkpt lat="45.07148" lon="6.1552">
        <ele>1363.111</ele>
        <time>2020-04-05T12:46:50Z</time>
      </trkpt>
      <trkpt lat="45.07132" lon="6.15512">
        <ele>1362.208</ele>
        <time>2020-04-05T12:47:10Z</time>
      </trkpt>
      <trkpt lat="45.07112" lon="6.15508">
        <ele>1361.272</ele>
        <time>2020-04-05T12:47:30Z</time>
      </trkpt>
      <trkpt lat="45.07102" lon="6.15515">
        <ele>1358.78</ele>
        <time>2020-04-05T12:47:50Z</time>
      </trkpt>
      <trkpt lat="45.07095" lon="6.15541">
        <ele>1353.778</ele>
        <time>2020-04-05T12:48:10Z</time>
      </trkpt>
      <trkpt lat="45.07108" lon="6.15558">
        <ele>1352.762</ele>
        <time>2020-04-05T12:48:30Z</time>
      </trkpt>
      <trkpt lat="45.07118" lon="6.15586">
        <ele>1347.333</ele>
        <time>2020-04-05T12:48:50Z</time>
      </trkpt>
      <trkpt lat="45.07111" lon="6.15595">
        <ele>1342.67</ele>
        <time>2020-04-05T12:49:10Z</time>
      </trkpt>
      <trkpt lat="45.07061" lon="6.15579">
        <ele>1338.284</ele>
        <time>2020-04-05T12:49:30Z</time>
      </trkpt>
      <trkpt lat="45.07054" lon="6.15564">
        <ele>1341.321</ele>
        <time>2020-04-05T12:49:50Z</time>
      </trkpt>
      <trkpt lat="45.07041" lon="6.15565">
        <ele>1338.611</ele>
        <time>2020-04-05T12:50:10Z</time>
      </trkpt>
      <trkpt lat="45.07014" lon="6.15558">
        <ele>1333.721</ele>
        <time>2020-04-05T12:50:30Z</time>
      </trkpt>
      <trkpt lat="45.07003" lon="6.15545">
        <ele>1334.103</ele>
        <time>2020-04-05T12:50:50Z</time>
      </trkpt>
      <trkpt lat="45.06987" lon="6.15541">
        <ele>1330.608</ele>
        <time>2020-04-05T12:51:10Z</time>
      </trkpt>
      <trkpt lat="45.06979" lon="6.15556">
        <ele>1323.877</ele>
        <time>2020-04-05T12:51:30Z</time>
      </trkpt>
      <trkpt lat="45.06981" lon="6.15591">
        <ele>1316.975</ele>
        <time>2020-04-05T12:51:50Z</time>
      </trkpt>
      <trkpt lat="45.06975" lon="6.15617">
        <ele>1310.213</ele>
        <time>2020-04-05T12:52:10Z</time>
      </trkpt>
      <trkpt lat="45.06949" lon="6.15627">
        <ele>1301.527</ele>
        <time>2020-04-05T12:52:30Z</time>
      </trkpt>
      <trkpt lat="45.06924" lon="6.1564">
        <ele>1291.248</ele>
        <time>2020-04-05T12:52:50Z</time>
      </trkpt>
      <trkpt lat="45.06908" lon="6.15638">
        <ele>1286.045</ele>
        <time>2020-04-05T12:53:10Z</time>
      </trkpt>
      <trkpt lat="45.06868" lon="6.15618">
        <ele>1277.689</ele>
        <time>2020-04-05T12:53:30Z</time>
      </trkpt>
      <trkpt lat="45.06836" lon="6.15586">
        <ele>1274.696</ele>
        <time>2020-04-05T12:53:50Z</time>
      </trkpt>
      <trkpt lat="45.06847" lon="6.15614">
        <ele>1272.777</ele>
        <time>2020-04-05T12:54:10Z</time>
      </trkpt>
      <trkpt lat="45.06876" lon="6.15647">
        <ele>1272.761</ele>
        <time>2020-04-05T12:54:30Z</time>
      </trkpt>
      <trkpt lat="45.06903" lon="6.15661">
        <ele>1277.627</ele>
        <time>2020-04-05T12:54:50Z</time>
      </trkpt>
      <trkpt lat="45.0691" lon="6.15678">
        <ele>1275.008</ele>
        <time>2020-04-05T12:55:10Z</time>
      </trkpt>
      <trkpt lat="45.06899" lon="6.15752">
        <ele>1279.193</ele>
        <time>2020-04-05T12:55:30Z</time>
      </trkpt>
      <trkpt lat="45.06913" lon="6.15719">
        <ele>1273.961</ele>
        <time>2020-04-05T12:55:50Z</time>
      </trkpt>
      <trkpt lat="45.06929" lon="6.15722">
        <ele>1273.729</ele>
        <time>2020-04-05T12:56:10Z</time>
      </trkpt>
      <trkpt lat="45.06923" lon="6.15733">
        <ele>1280.323</ele>
        <time>2020-04-05T12:56:30Z</time>
      </trkpt>
      <trkpt lat="45.06938" lon="6.15733">
        <ele>1278.624</ele>
        <time>2020-04-05T12:56:50Z</time>
      </trkpt>
      <trkpt lat="45.06929" lon="6.15746">
        <ele>1287.291</ele>
        <time>2020-04-05T12:57:10Z</time>
      </trkpt>
      <trkpt lat="45.06942" lon="6.15746">
        <ele>1286.125</ele>
        <time>2020-04-05T12:57:30Z</time>
      </trkpt>
      <trkpt lat="45.06946" lon="6.15766">
        <ele>1297.372</ele>
        <time>2020-04-05T12:57:50Z</time>
      </trkpt>
      <trkpt lat="45.06972" lon="6.15778">
        <ele>1297.913</ele>
        <time>2020-04-05T12:58:10Z</time>
      </trkpt>
      <trkpt lat="45.06975" lon="6.15788">
        <ele>1303.743</ele>
        <time>2020-04-05T12:58:30Z</time>
      </trkpt>
      <trkpt lat="45.06986" lon="6.15788">
        <ele>1301.707</ele>
        <time>2020-04-05T12:58:50Z</time>
      </trkpt>
      <trkpt lat="45.06998" lon="6.15806">
        <ele>1314.208</ele>
        <time>2020-04-05T12:59:10Z</time>
      </trkpt>
      <trkpt lat="45.07029" lon="6.15881">
        <ele>1352.667</ele>
        <time>2020-04-05T12:59:30Z</time>
      </trkpt>
      <trkpt lat="45.07053" lon="6.15908">
        <ele>1363.335</ele>
        <time>2020-04-05T12:59:50Z</time>
      </trkpt>
      <trkpt lat="45.07075" lon="6.15911">
        <ele>1359.843</ele>
        <time>2020-04-05T13:00:10Z</time>
      </trkpt>
      <trkpt lat="45.07078" lon="6.15945">
        <ele>1386.177</ele>
        <time>2020-04-05T13:00:30Z</time>
      </trkpt>
      <trkpt lat="45.07072" lon="6.15982">
        <ele>1399.748</ele>
        <time>2020-04-05T13:00:50Z</time>
      </trkpt>
      <trkpt lat="45.07077" lon="6.16032">
        <ele>1414.315</ele>
        <time>2020-04-05T13:01:10Z</time>
      </trkpt>
      <trkpt lat="45.07079" lon="6.16087">
        <ele>1426.919</ele>
        <time>2020-04-05T13:01:30Z</time>
      </trkpt>
      <trkpt lat="45.07099" lon="6.16148">
        <ele>1443.256</ele>
        <time>2020-04-05T13:01:50Z</time>
      </trkpt>
      <trkpt lat="45.07098" lon="6.16169">
        <ele>1444.945</ele>
        <time>2020-04-05T13:02:10Z</time>
      </trkpt>
      <trkpt lat="45.07109" lon="6.16201">
        <ele>1452.147</ele>
        <time>2020-04-05T13:02:30Z</time>
      </trkpt>
      <trkpt lat="45.07104" lon="6.16296">
        <ele>1459.311</ele>
        <time>2020-04-05T13:02:50Z</time>
      </trkpt>
      <trkpt lat="45.07111" lon="6.16316">
        <ele>1462.708</ele>
        <time>2020-04-05T13:03:10Z</time>
      </trkpt>
      <trkpt lat="45.07116" lon="6.16385">
        <ele>1470.99</ele>
        <time>2020-04-05T13:03:30Z</time>
      </trkpt>
      <trkpt lat="45.07106" lon="6.1641">
        <ele>1471.028</ele>
        <time>2020-04-05T13:03:50Z</time>
      </trkpt>
      <trkpt lat="45.07109" lon="6.16474">
        <ele>1473.616</ele>
        <time>2020-04-05T13:04:10Z</time>
      </trkpt>
      <trkpt lat="45.07129" lon="6.16504">
        <ele>1478.11</ele>
        <time>2020-04-05T13:04:30Z</time>
      </trkpt>
      <trkpt lat="45.07152" lon="6.16554">
        <ele>1486.661</ele>
        <time>2020-04-05T13:04:50Z</time>
      </trkpt>
      <trkpt lat="45.07137" lon="6.16584">
        <ele>1484.928</ele>
        <time>2020-04-05T13:05:10Z</time>
      </trkpt>
      <trkpt lat="45.07131" lon="6.16752">
        <ele>1512.252</ele>
        <time>2020-04-05T13:05:30Z</time>
      </trkpt>
      <trkpt lat="45.07111" lon="6.16822">
        <ele>1520.419</ele>
        <time>2020-04-05T13:05:50Z</time>
      </trkpt>
      <trkpt lat="45.07102" lon="6.16875">
        <ele>1526.612</ele>
        <time>2020-04-05T13:06:10Z</time>
      </trkpt>
      <trkpt lat="45.07096" lon="6.16885">
        <ele>1527.332</ele>
        <time>2020-04-05T13:06:30Z</time>
      </trkpt>
      <trkpt lat="45.07137" lon="6.16971">
        <ele>1548.405</ele>
        <time>2020-04-05T13:06:50Z</time>
      </trkpt>
      <trkpt lat="45.07151" lon="6.16979">
        <ele>1550.708</ele>
        <time>2020-04-05T13:07:10Z</time>
      </trkpt>
      <trkpt lat="45.07153" lon="6.1702">
        <ele>1548.267</ele>
        <time>2020-04-05T13:07:30Z</time>
      </trkpt>
      <trkpt lat="45.07181" lon="6.17114">
        <ele>1549.595</ele>
        <time>2020-04-05T13:07:50Z</time>
      </trkpt>
      <trkpt lat="45.07198" lon="6.17212">
        <ele>1548.733</ele>
        <time>2020-04-05T13:08:10Z</time>
      </trkpt>
      <trkpt lat="45.07236" lon="6.17293">
        <ele>1554.957</ele>
        <time>2020-04-05T13:08:30Z</time>
      </trkpt>
      <trkpt lat="45.0729" lon="6.17406">
        <ele>1561.798</ele>
        <time>2020-04-05T13:08:50Z</time>
      </trkpt>
      <trkpt lat="45.07315" lon="6.17466">
        <ele>1562.365</ele>
        <time>2020-04-05T13:09:10Z</time>
      </trkpt>
      <trkpt lat="45.0741" lon="6.17609">
        <ele>1565.799</ele>
        <time>2020-04-05T13:09:30Z</time>
      </trkpt>
      <trkpt lat="45.07488" lon="6.17682">
        <ele>1567.366</ele>
        <time>2020-04-05T13:09:50Z</time>
      </trkpt>
      <trkpt lat="45.07585" lon="6.17827">
        <ele>1563.875</ele>
        <time>2020-04-05T13:10:10Z</time>
      </trkpt>
      <trkpt lat="45.07707" lon="6.17923">
        <ele>1564.028</ele>
        <time>2020-04-05T13:10:30Z</time>
      </trkpt>
      <trkpt lat="45.07769" lon="6.1798">
        <ele>1559.62</ele>
        <time>2020-04-05T13:10:50Z</time>
      </trkpt>
      <trkpt lat="45.07823" lon="6.17976">
        <ele>1562.908</ele>
        <time>2020-04-05T13:11:10Z</time>
      </trkpt>
      <trkpt lat="45.07845" lon="6.17986">
        <ele>1563.753</ele>
        <time>2020-04-05T13:11:30Z</time>
      </trkpt>
      <trkpt lat="45.0784" lon="6.18022">
        <ele>1559.931</ele>
        <time>2020-04-05T13:11:50Z</time>
      </trkpt>
      <trkpt lat="45.07862" lon="6.181">
        <ele>1562.369</ele>
        <time>2020-04-05T13:12:10Z</time>
      </trkpt>
      <trkpt lat="45.07893" lon="6.1815">
        <ele>1564.753</ele>
        <time>2020-04-05T13:12:30Z</time>
      </trkpt>
      <trkpt lat="45.07923" lon="6.18181">
        <ele>1568.294</ele>
        <time>2020-04-05T13:12:50Z</time>
      </trkpt>
      <trkpt lat="45.07934" lon="6.18224">
        <ele>1575.541</ele>
        <time>2020-04-05T13:13:10Z</time>
      </trkpt>
      <trkpt lat="45.07953" lon="6.1828">
        <ele>1582.995</ele>
        <time>2020-04-05T13:13:30Z</time>
      </trkpt>
      <trkpt lat="45.07955" lon="6.18325">
        <ele>1593.392</ele>
        <time>2020-04-05T13:13:50Z</time>
      </trkpt>
      <trkpt lat="45.07975" lon="6.18352">
        <ele>1592.021</ele>
        <time>2020-04-05T13:14:10Z</time>
      </trkpt>
      <trkpt lat="45.07954" lon="6.18347">
        <ele>1598.441</ele>
        <time>2020-04-05T13:14:30Z</time>
      </trkpt>
      <trkpt lat="45.07956" lon="6.18363">
        <ele>1601.305</ele>
        <time>2020-04-05T13:14:50Z</time>
      </trkpt>
      <trkpt lat="45.07937" lon="6.18352">
        <ele>1606.308</ele>
        <time>2020-04-05T13:15:10Z</time>
      </trkpt>
      <trkpt lat="45.07946" lon="6.18407">
        <ele>1618.028</ele>
        <time>2020-04-05T13:15:30Z</time>
      </trkpt>
      <trkpt lat="45.07948" lon="6.18439">
        <ele>1626.186</ele>
        <time>2020-04-05T13:15:50Z</time>
      </trkpt>
      <trkpt lat="45.07964" lon="6.1851">
        <ele>1639.194</ele>
        <time>2020-04-05T13:16:10Z</time>
      </trkpt>
      <trkpt lat="45.07969" lon="6.18618">
        <ele>1658.818</ele>
        <time>2020-04-05T13:16:30Z</time>
      </trkpt>
      <trkpt lat="45.07959" lon="6.18748">
        <ele>1681.829</ele>
        <time>2020-04-05T13:16:50Z</time>
      </trkpt>
      <trkpt lat="45.07945" lon="6.18823">
        <ele>1693.446</ele>
        <time>2020-04-05T13:17:10Z</time>
      </trkpt>
      <trkpt lat="45.07944" lon="6.18911">
        <ele>1698.06</ele>
        <time>2020-04-05T13:17:30Z</time>
      </trkpt>
      <trkpt lat="45.0794" lon="6.18957">
        <ele>1702.947</ele>
        <time>2020-04-05T13:17:50Z</time>
      </trkpt>
      <trkpt lat="45.07945" lon="6.18984">
        <ele>1701.664</ele>
        <time>2020-04-05T13:18:10Z</time>
      </trkpt>
      <trkpt lat="45.07927" lon="6.19138">
        <ele>1725.506</ele>
        <time>2020-04-05T13:18:30Z</time>
      </trkpt>
      <trkpt lat="45.0792" lon="6.19141">
        <ele>1731.016</ele>
        <time>2020-04-05T13:18:50Z</time>
      </trkpt>
      <trkpt lat="45.07905" lon="6.19242">
        <ele>1746.008</ele>
        <time>2020-04-05T13:19:10Z</time>
      </trkpt>
      <trkpt lat="45.07903" lon="6.19325">
        <ele>1753.412</ele>
        <time>2020-04-05T13:19:30Z</time>
      </trkpt>
      <trkpt lat="45.07898" lon="6.1936">
        <ele>1760.23</ele>
        <time>2020-04-05T13:19:50Z</time>
      </trkpt>
      <trkpt lat="45.07896" lon="6.1944">
        <ele>1771.848</ele>
        <time>2020-04-05T13:20:10Z</time>
      </trkpt>
      <trkpt lat="45.07891" lon="6.19438">
        <ele>1775.692</ele>
        <time>2020-04-05T13:20:30Z</time>
      </trkpt>
      <trkpt lat="45.07892" lon="6.19474">
        <ele>1779.083</ele>
        <time>2020-04-05T13:20:50Z</time>
      </trkpt>
      <trkpt lat="45.07886" lon="6.19516">
        <ele>1788.22</ele>
        <time>2020-04-05T13:21:10Z</time>
      </trkpt>
      <trkpt lat="45.07877" lon="6.19536">
        <ele>1796.044</ele>
        <time>2020-04-05T13:21:30Z</time>
      </trkpt>
      <trkpt lat="45.07885" lon="6.19553">
        <ele>1791.341</ele>
        <time>2020-04-05T13:21:50Z</time>
      </trkpt>
      <trkpt lat="45.07891" lon="6.19598">
        <ele>1797.451</ele>
        <time>2020-04-05T13:22:10Z</time>
      </trkpt>
      <trkpt lat="45.07882" lon="6.19591">
        <ele>1802.001</ele>
        <time>2020-04-05T13:22:30Z</time>
      </trkpt>
      <trkpt lat="45.07887" lon="6.1963">
        <ele>1807.411</ele>
        <time>2020-04-05T13:22:50Z</time>
      </trkpt>
      <trkpt lat="45.07879" lon="6.19619">
        <ele>1809.508</ele>
        <time>2020-04-05T13:23:10Z</time>
      </trkpt>
      <trkpt lat="45.07875" lon="6.19628">
        <ele>1813.681</ele>
        <time>2020-04-05T13:23:30Z</time>
      </trkpt>
      <trkpt lat="45.07853" lon="6.19596">
        <ele>1821.989</ele>
        <time>2020-04-05T13:23:50Z</time>
      </trkpt>
      <trkpt lat="45.07853" lon="6.1962">
        <ele>1826.367</ele>
        <time>2020-04-05T13:24:10Z</time>
      </trkpt>
      <trkpt lat="45.07837" lon="6.19583">
        <ele>1830.611</ele>
        <time>2020-04-05T13:24:30Z</time>
      </trkpt>
      <trkpt lat="45.07829" lon="6.19584">
        <ele>1836.182</ele>
        <time>2020-04-05T13:24:50Z</time>
      </trkpt>
      <trkpt lat="45.07822" lon="6.19565">
        <ele>1836.919</ele>
        <time>2020-04-05T13:25:10Z</time>
      </trkpt>
      <trkpt lat="45.07806" lon="6.19545">
        <ele>1848.313</ele>
        <time>2020-04-05T13:25:30Z</time>
      </trkpt>
      <trkpt lat="45.07806" lon="6.19523">
        <ele>1848.77</ele>
        <time>2020-04-05T13:25:50Z</time>
      </trkpt>
      <trkpt lat="45.07801" lon="6.19513">
        <ele>1851.592</ele>
        <time>2020-04-05T13:26:10Z</time>
      </trkpt>
      <trkpt lat="45.07789" lon="6.19537">
        <ele>1859.973</ele>
        <time>2020-04-05T13:26:30Z</time>
      </trkpt>
      <trkpt lat="45.07786" lon="6.19503">
        <ele>1861.92</ele>
        <time>2020-04-05T13:26:50Z</time>
      </trkpt>
      <trkpt lat="45.07779" lon="6.19471">
        <ele>1865.708</ele>
        <time>2020-04-05T13:27:10Z</time>
      </trkpt>
      <trkpt lat="45.07773" lon="6.19509">
        <ele>1870.755</ele>
        <time>2020-04-05T13:27:30Z</time>
      </trkpt>
      <trkpt lat="45.07768" lon="6.19494">
        <ele>1874.013</ele>
        <time>2020-04-05T13:27:50Z</time>
      </trkpt>
      <trkpt lat="45.07763" lon="6.19511">
        <ele>1876.981</ele>
        <time>2020-04-05T13:28:10Z</time>
      </trkpt>
      <trkpt lat="45.0776" lon="6.19489">
        <ele>1879.465</ele>
        <time>2020-04-05T13:28:30Z</time>
      </trkpt>
      <trkpt lat="45.07752" lon="6.19506">
        <ele>1884.486</ele>
        <time>2020-04-05T13:28:50Z</time>
      </trkpt>
      <trkpt lat="45.07746" lon="6.19476">
        <ele>1888.913</ele>
        <time>2020-04-05T13:29:10Z</time>
      </trkpt>
      <trkpt lat="45.0774" lon="6.19468">
        <ele>1891.957</ele>
        <time>2020-04-05T13:29:30Z</time>
      </trkpt>
      <trkpt lat="45.07733" lon="6.19496">
        <ele>1894.314</ele>
        <time>2020-04-05T13:29:50Z</time>
      </trkpt>
      <trkpt lat="45.07728" lon="6.19488">
        <ele>1897.043</ele>
        <time>2020-04-05T13:30:10Z</time>
      </trkpt>
      <trkpt lat="45.07715" lon="6.19502">
        <ele>1899.564</ele>
        <time>2020-04-05T13:30:30Z</time>
      </trkpt>
      <trkpt lat="45.07694" lon="6.19512">
        <ele>1901.91</ele>
        <time>2020-04-05T13:30:50Z</time>
      </trkpt>
      <trkpt lat="45.07651" lon="6.19563">
        <ele>1914.908</ele>
        <time>2020-04-05T13:31:10Z</time>
      </trkpt>
      <trkpt lat="45.07643" lon="6.19555">
        <ele>1914.33</ele>
        <time>2020-04-05T13:31:30Z</time>
      </trkpt>
      <trkpt lat="45.07635" lon="6.19563">
        <ele>1916.998</ele>
        <time>2020-04-05T13:31:50Z</time>
      </trkpt>
      <trkpt lat="45.07634" lon="6.19579">
        <ele>1920.826</ele>
        <time>2020-04-05T13:32:10Z</time>
      </trkpt>
      <trkpt lat="45.07623" lon="6.19581">
        <ele>1922.58</ele>
        <time>2020-04-05T13:32:30Z</time>
      </trkpt>
      <trkpt lat="45.07612" lon="6.19597">
        <ele>1928.331</ele>
        <time>2020-04-05T13:32:50Z</time>
      </trkpt>
      <trkpt lat="45.07621" lon="6.19604">
        <ele>1928.818</ele>
        <time>2020-04-05T13:33:10Z</time>
      </trkpt>
      <trkpt lat="45.07621" lon="6.1962">
        <ele>1933.362</ele>
        <time>2020-04-05T13:33:30Z</time>
      </trkpt>
      <trkpt lat="45.07635" lon="6.19642">
        <ele>1938.399</ele>
        <time>2020-04-05T13:33:50Z</time>
      </trkpt>
      <trkpt lat="45.07629" lon="6.19649">
        <ele>1941.754</ele>
        <time>2020-04-05T13:34:10Z</time>
      </trkpt>
      <trkpt lat="45.0764" lon="6.19667">
        <ele>1944.556</ele>
        <time>2020-04-05T13:34:30Z</time>
      </trkpt>
      <trkpt lat="45.07662" lon="6.19723">
        <ele>1955.011</ele>
        <time>2020-04-05T13:34:50Z</time>
      </trkpt>
      <trkpt lat="45.07654" lon="6.19724">
        <ele>1958.908</ele>
        <time>2020-04-05T13:35:10Z</time>
      </trkpt>
      <trkpt lat="45.07656" lon="6.19739">
        <ele>1962.841</ele>
        <time>2020-04-05T13:35:30Z</time>
      </trkpt>
      <trkpt lat="45.07621" lon="6.19727">
        <ele>1971.489</ele>
        <time>2020-04-05T13:35:50Z</time>
      </trkpt>
      <trkpt lat="45.07589" lon="6.19729">
        <ele>1982.867</ele>
        <time>2020-04-05T13:36:10Z</time>
      </trkpt>
      <trkpt lat="45.07551" lon="6.19717">
        <ele>1984.321</ele>
        <time>2020-04-05T13:36:30Z</time>
      </trkpt>
      <trkpt lat="45.07564" lon="6.19733">
        <ele>1989.562</ele>
        <time>2020-04-05T13:36:50Z</time>
      </trkpt>
      <trkpt lat="45.07531" lon="6.19748">
        <ele>1997.179</ele>
        <time>2020-04-05T13:37:10Z</time>
      </trkpt>
      <trkpt lat="45.07534" lon="6.19757">
        <ele>2000.513</ele>
        <time>2020-04-05T13:37:30Z</time>
      </trkpt>
      <trkpt lat="45.07521" lon="6.19773">
        <ele>2005.12</ele>
        <time>2020-04-05T13:37:50Z</time>
      </trkpt>
      <trkpt lat="45.07539" lon="6.19778">
        <ele>2008.176</ele>
        <time>2020-04-05T13:38:10Z</time>
      </trkpt>
      <trkpt lat="45.07535" lon="6.19789">
        <ele>2012.29</ele>
        <time>2020-04-05T13:38:30Z</time>
      </trkpt>
      <trkpt lat="45.07546" lon="6.19809">
        <ele>2019.019</ele>
        <time>2020-04-05T13:38:50Z</time>
      </trkpt>
      <trkpt lat="45.07534" lon="6.19824">
        <ele>2023.408</ele>
        <time>2020-04-05T13:39:10Z</time>
      </trkpt>
      <trkpt lat="45.07539" lon="6.1984">
        <ele>2028.363</ele>
        <time>2020-04-05T13:39:30Z</time>
      </trkpt>
      <trkpt lat="45.07543" lon="6.19864">
        <ele>2036.441</ele>
        <time>2020-04-05T13:39:50Z</time>
      </trkpt>
      <trkpt lat="45.07558" lon="6.19875">
        <ele>2038.139</ele>
        <time>2020-04-05T13:40:10Z</time>
      </trkpt>
      <trkpt lat="45.07541" lon="6.19894">
        <ele>2044.953</ele>
        <time>2020-04-05T13:40:30Z</time>
      </trkpt>
      <trkpt lat="45.07566" lon="6.19934">
        <ele>2054.444</ele>
        <time>2020-04-05T13:40:50Z</time>
      </trkpt>
      <trkpt lat="45.07576" lon="6.19959">
        <ele>2061.311</ele>
        <time>2020-04-05T13:41:10Z</time>
      </trkpt>
      <trkpt lat="45.07595" lon="6.19981">
        <ele>2064.045</ele>
        <time>2020-04-05T13:41:30Z</time>
      </trkpt>
      <trkpt lat="45.07603" lon="6.20009">
        <ele>2071.332</ele>
        <time>2020-04-05T13:41:50Z</time>
      </trkpt>
      <trkpt lat="45.07615" lon="6.2003">
        <ele>2073.424</ele>
        <time>2020-04-05T13:42:10Z</time>
      </trkpt>
      <trkpt lat="45.07624" lon="6.2006">
        <ele>2079.004</ele>
        <time>2020-04-05T13:42:30Z</time>
      </trkpt>
      <trkpt lat="45.07639" lon="6.20094">
        <ele>2082.114</ele>
        <time>2020-04-05T13:42:50Z</time>
      </trkpt>
      <trkpt lat="45.07619" lon="6.20081">
        <ele>2087.608</ele>
        <time>2020-04-05T13:43:10Z</time>
      </trkpt>
      <trkpt lat="45.07624" lon="6.20106">
        <ele>2091.868</ele>
        <time>2020-04-05T13:43:30Z</time>
      </trkpt>
      <trkpt lat="45.07599" lon="6.20086">
        <ele>2097.646</ele>
        <time>2020-04-05T13:43:50Z</time>
      </trkpt>
      <trkpt lat="45.07604" lon="6.2011">
        <ele>2101.654</ele>
        <time>2020-04-05T13:44:10Z</time>
      </trkpt>
      <trkpt lat="45.0757" lon="6.20072">
        <ele>2104.218</ele>
        <time>2020-04-05T13:44:30Z</time>
      </trkpt>
      <trkpt lat="45.07571" lon="6.20099">
        <ele>2112.589</ele>
        <time>2020-04-05T13:44:50Z</time>
      </trkpt>
      <trkpt lat="45.07559" lon="6.20091">
        <ele>2114.956</ele>
        <time>2020-04-05T13:45:10Z</time>
      </trkpt>
      <trkpt lat="45.0755" lon="6.20093">
        <ele>2118.35</ele>
        <time>2020-04-05T13:45:30Z</time>
      </trkpt>
      <trkpt lat="45.07534" lon="6.20081">
        <ele>2120.347</ele>
        <time>2020-04-05T13:45:50Z</time>
      </trkpt>
      <trkpt lat="45.07513" lon="6.2008">
        <ele>2124.617</ele>
        <time>2020-04-05T13:46:10Z</time>
      </trkpt>
      <trkpt lat="45.07511" lon="6.20093">
        <ele>2129.387</ele>
        <time>2020-04-05T13:46:30Z</time>
      </trkpt>
      <trkpt lat="45.07495" lon="6.20088">
        <ele>2131.115</ele>
        <time>2020-04-05T13:46:50Z</time>
      </trkpt>
      <trkpt lat="45.07474" lon="6.20104">
        <ele>2140.108</ele>
        <time>2020-04-05T13:47:10Z</time>
      </trkpt>
      <trkpt lat="45.07497" lon="6.20136">
        <ele>2145.727</ele>
        <time>2020-04-05T13:47:30Z</time>
      </trkpt>
      <trkpt lat="45.07502" lon="6.20147">
        <ele>2147.975</ele>
        <time>2020-04-05T13:47:50Z</time>
      </trkpt>
      <trkpt lat="45.07518" lon="6.2016">
        <ele>2147.663</ele>
        <time>2020-04-05T13:48:10Z</time>
      </trkpt>
      <trkpt lat="45.07527" lon="6.2018">
        <ele>2151.537</ele>
        <time>2020-04-05T13:48:30Z</time>
      </trkpt>
      <trkpt lat="45.07542" lon="6.20195">
        <ele>2151.288</ele>
        <time>2020-04-05T13:48:50Z</time>
      </trkpt>
      <trkpt lat="45.07563" lon="6.20241">
        <ele>2160.615</ele>
        <time>2020-04-05T13:49:10Z</time>
      </trkpt>
      <trkpt lat="45.07555" lon="6.20249">
        <ele>2167.879</ele>
        <time>2020-04-05T13:49:30Z</time>
      </trkpt>
      <trkpt lat="45.0757" lon="6.20268">
        <ele>2167.796</ele>
        <time>2020-04-05T13:49:50Z</time>
      </trkpt>
      <trkpt lat="45.07519" lon="6.20244">
        <ele>2179.639</ele>
        <time>2020-04-05T13:50:10Z</time>
      </trkpt>
      <trkpt lat="45.07494" lon="6.20229">
        <ele>2182.701</ele>
        <time>2020-04-05T13:50:30Z</time>
      </trkpt>
      <trkpt lat="45.07463" lon="6.20229">
        <ele>2191.121</ele>
        <time>2020-04-05T13:50:50Z</time>
      </trkpt>
      <trkpt lat="45.07473" lon="6.2025">
        <ele>2199.708</ele>
        <time>2020-04-05T13:51:10Z</time>
      </trkpt>
      <trkpt lat="45.07425" lon="6.20242">
        <ele>2204.649</ele>
        <time>2020-04-05T13:51:30Z</time>
      </trkpt>
      <trkpt lat="45.07389" lon="6.20262">
        <ele>2214.087</ele>
        <time>2020-04-05T13:51:50Z</time>
      </trkpt>
      <trkpt lat="45.07348" lon="6.20315">
        <ele>2227.125</ele>
        <time>2020-04-05T13:52:10Z</time>
      </trkpt>
      <trkpt lat="45.07331" lon="6.20369">
        <ele>2236.329</ele>
        <time>2020-04-05T13:52:30Z</time>
      </trkpt>
      <trkpt lat="45.07344" lon="6.20442">
        <ele>2246.31</ele>
        <time>2020-04-05T13:52:50Z</time>
      </trkpt>
      <trkpt lat="45.07367" lon="6.20534">
        <ele>2253.017</ele>
        <time>2020-04-05T13:53:10Z</time>
      </trkpt>
      <trkpt lat="45.07315" lon="6.20554">
        <ele>2249.871</ele>
        <time>2020-04-05T13:53:30Z</time>
      </trkpt>
      <trkpt lat="45.07236" lon="6.20571">
        <ele>2241.088</ele>
        <time>2020-04-05T13:53:50Z</time>
      </trkpt>
      <trkpt lat="45.07206" lon="6.20581">
        <ele>2240.614</ele>
        <time>2020-04-05T13:54:10Z</time>
      </trkpt>
      <trkpt lat="45.0717" lon="6.20584">
        <ele>2241.854</ele>
        <time>2020-04-05T13:54:30Z</time>
      </trkpt>
      <trkpt lat="45.07143" lon="6.20599">
        <ele>2242.509</ele>
        <time>2020-04-05T13:54:50Z</time>
      </trkpt>
      <trkpt lat="45.071" lon="6.20638">
        <ele>2236.008</ele>
        <time>2020-04-05T13:55:10Z</time>
      </trkpt>
      <trkpt lat="45.07083" lon="6.20683">
        <ele>2225.757</ele>
        <time>2020-04-05T13:55:30Z</time>
      </trkpt>
      <trkpt lat="45.07075" lon="6.20778">
        <ele>2217.615</ele>
        <time>2020-04-05T13:55:50Z</time>
      </trkpt>
      <trkpt lat="45.07065" lon="6.20834">
        <ele>2215.973</ele>
        <time>2020-04-05T13:56:10Z</time>
      </trkpt>
      <trkpt lat="45.07046" lon="6.20886">
        <ele>2215.857</ele>
        <time>2020-04-05T13:56:30Z</time>
      </trkpt>
      <trkpt lat="45.07036" lon="6.20926">
        <ele>2215.978</ele>
        <time>2020-04-05T13:56:50Z</time>
      </trkpt>
      <trkpt lat="45.07014" lon="6.20995">
        <ele>2214.355</ele>
        <time>2020-04-05T13:57:10Z</time>
      </trkpt>
      <trkpt lat="45.0697" lon="6.21059">
        <ele>2209.129</ele>
        <time>2020-04-05T13:57:30Z</time>
      </trkpt>
      <trkpt lat="45.06953" lon="6.21101">
        <ele>2208.726</ele>
        <time>2020-04-05T13:57:50Z</time>
      </trkpt>
      <trkpt lat="45.06931" lon="6.21139">
        <ele>2209.036</ele>
        <time>2020-04-05T13:58:10Z</time>
      </trkpt>
      <trkpt lat="45.06908" lon="6.21202">
        <ele>2208.317</ele>
        <time>2020-04-05T13:58:30Z</time>
      </trkpt>
      <trkpt lat="45.06875" lon="6.2132">
        <ele>2209.518</ele>
        <time>2020-04-05T13:58:50Z</time>
      </trkpt>
      <trkpt lat="45.06827" lon="6.21398">
        <ele>2210.008</ele>
        <time>2020-04-05T13:59:10Z</time>
      </trkpt>
      <trkpt lat="45.06804" lon="6.21421">
        <ele>2209.129</ele>
        <time>2020-04-05T13:59:30Z</time>
      </trkpt>
      <trkpt lat="45.06788" lon="6.21455">
        <ele>2209.647</ele>
        <time>2020-04-05T13:59:50Z</time>
      </trkpt>
      <trkpt lat="45.06759" lon="6.21497">
        <ele>2211.495</ele>
        <time>2020-04-05T14:00:10Z</time>
      </trkpt>
      <trkpt lat="45.0673" lon="6.21552">
        <ele>2210.089</ele>
        <time>2020-04-05T14:00:30Z</time>
      </trkpt>
      <trkpt lat="45.06705" lon="6.21586">
        <ele>2209.66</ele>
        <time>2020-04-05T14:00:50Z</time>
      </trkpt>
      <trkpt lat="45.06689" lon="6.21625">
        <ele>2210.147</ele>
        <time>2020-04-05T14:01:10Z</time>
      </trkpt>
      <trkpt lat="45.06595" lon="6.21764">
        <ele>2209.451</ele>
        <time>2020-04-05T14:01:30Z</time>
      </trkpt>
      <trkpt lat="45.06585" lon="6.21807">
        <ele>2206.058</ele>
        <time>2020-04-05T14:01:50Z</time>
      </trkpt>
      <trkpt lat="45.0657" lon="6.21949">
        <ele>2193.528</ele>
        <time>2020-04-05T14:02:10Z</time>
      </trkpt>
      <trkpt lat="45.06576" lon="6.21976">
        <ele>2191.689</ele>
        <time>2020-04-05T14:02:30Z</time>
      </trkpt>
      <trkpt lat="45.06575" lon="6.22">
        <ele>2192.117</ele>
        <time>2020-04-05T14:02:50Z</time>
      </trkpt>
      <trkpt lat="45.06561" lon="6.22038">
        <ele>2192.208</ele>
        <time>2020-04-05T14:03:10Z</time>
      </trkpt>
      <trkpt lat="45.06511" lon="6.22118">
        <ele>2202.738</ele>
        <time>2020-04-05T14:03:30Z</time>
      </trkpt>
      <trkpt lat="45.06505" lon="6.22218">
        <ele>2215.616</ele>
        <time>2020-04-05T14:03:50Z</time>
      </trkpt>
      <trkpt lat="45.06505" lon="6.22268">
        <ele>2220.854</ele>
        <time>2020-04-05T14:04:10Z</time>
      </trkpt>
      <trkpt lat="45.06492" lon="6.2232">
        <ele>2229.848</ele>
        <time>2020-04-05T14:04:30Z</time>
      </trkpt>
      <trkpt lat="45.06464" lon="6.22363">
        <ele>2238.459</ele>
        <time>2020-04-05T14:04:50Z</time>
      </trkpt>
      <trkpt lat="45.06457" lon="6.22455">
        <ele>2248.476</ele>
        <time>2020-04-05T14:05:10Z</time>
      </trkpt>
      <trkpt lat="45.06421" lon="6.22557">
        <ele>2259.26</ele>
        <time>2020-04-05T14:05:30Z</time>
      </trkpt>
      <trkpt lat="45.06412" lon="6.22621">
        <ele>2262.167</ele>
        <time>2020-04-05T14:05:50Z</time>
      </trkpt>
      <trkpt lat="45.06385" lon="6.22713">
        <ele>2267.459</ele>
        <time>2020-04-05T14:06:10Z</time>
      </trkpt>
      <trkpt lat="45.06351" lon="6.22744">
        <ele>2271.203</ele>
        <time>2020-04-05T14:06:30Z</time>
      </trkpt>
      <trkpt lat="45.06327" lon="6.2281">
        <ele>2272.223</ele>
        <time>2020-04-05T14:06:50Z</time>
      </trkpt>
      <trkpt lat="45.06316" lon="6.22828">
        <ele>2274.508</ele>
        <time>2020-04-05T14:07:10Z</time>
      </trkpt>
      <trkpt lat="45.0632" lon="6.22866">
        <ele>2277.511</ele>
        <time>2020-04-05T14:07:30Z</time>
      </trkpt>
      <trkpt lat="45.06318" lon="6.22937">
        <ele>2283.319</ele>
        <time>2020-04-05T14:07:50Z</time>
      </trkpt>
      <trkpt lat="45.06327" lon="6.23023">
        <ele>2289.597</ele>
        <time>2020-04-05T14:08:10Z</time>
      </trkpt>
      <trkpt lat="45.06319" lon="6.23081">
        <ele>2295.431</ele>
        <time>2020-04-05T14:08:30Z</time>
      </trkpt>
      <trkpt lat="45.06303" lon="6.23125">
        <ele>2299.672</ele>
        <time>2020-04-05T14:08:50Z</time>
      </trkpt>
      <trkpt lat="45.063" lon="6.23157">
        <ele>2301.439</ele>
        <time>2020-04-05T14:09:10Z</time>
      </trkpt>
      <trkpt lat="45.06289" lon="6.23206">
        <ele>2304.153</ele>
        <time>2020-04-05T14:09:30Z</time>
      </trkpt>
      <trkpt lat="45.06288" lon="6.23231">
        <ele>2303.89</ele>
        <time>2020-04-05T14:09:50Z</time>
      </trkpt>
      <trkpt lat="45.06282" lon="6.23259">
        <ele>2306.327</ele>
        <time>2020-04-05T14:10:10Z</time>
      </trkpt>
      <trkpt lat="45.06287" lon="6.23274">
        <ele>2305.568</ele>
        <time>2020-04-05T14:10:30Z</time>
      </trkpt>
      <trkpt lat="45.06288" lon="6.23311">
        <ele>2307.114</ele>
        <time>2020-04-05T14:10:50Z</time>
      </trkpt>
      <trkpt lat="45.06298" lon="6.2335">
        <ele>2306.408</ele>
        <time>2020-04-05T14:11:10Z</time>
      </trkpt>
      <trkpt lat="45.0628" lon="6.23428">
        <ele>2310.968</ele>
        <time>2020-04-05T14:11:30Z</time>
      </trkpt>
      <trkpt lat="45.06286" lon="6.23449">
        <ele>2310.866</ele>
        <time>2020-04-05T14:11:50Z</time>
      </trkpt>
      <trkpt lat="45.06288" lon="6.23478">
        <ele>2312.174</ele>
        <time>2020-04-05T14:12:10Z</time>
      </trkpt>
      <trkpt lat="45.06284" lon="6.23499">
        <ele>2312.918</ele>
        <time>2020-04-05T14:12:30Z</time>
      </trkpt>
      <trkpt lat="45.06293" lon="6.23559">
        <ele>2314.549</ele>
        <time>2020-04-05T14:12:50Z</time>
      </trkpt>
      <trkpt lat="45.06275" lon="6.23641">
        <ele>2322.626</ele>
        <time>2020-04-05T14:13:10Z</time>
      </trkpt>
      <trkpt lat="45.06263" lon="6.23654">
        <ele>2325.56</ele>
        <time>2020-04-05T14:13:30Z</time>
      </trkpt>
      <trkpt lat="45.06252" lon="6.23673">
        <ele>2328.167</ele>
        <time>2020-04-05T14:13:50Z</time>
      </trkpt>
      <trkpt lat="45.06247" lon="6.2369">
        <ele>2330.569</ele>
        <time>2020-04-05T14:14:10Z</time>
      </trkpt>
      <trkpt lat="45.06226" lon="6.23701">
        <ele>2335.304</ele>
        <time>2020-04-05T14:14:30Z</time>
      </trkpt>
      <trkpt lat="45.06215" lon="6.23717">
        <ele>2337.324</ele>
        <time>2020-04-05T14:14:50Z</time>
      </trkpt>
      <trkpt lat="45.0619" lon="6.23733">
        <ele>2341.808</ele>
        <time>2020-04-05T14:15:10Z</time>
      </trkpt>
      <trkpt lat="45.06159" lon="6.23775">
        <ele>2349.442</ele>
        <time>2020-04-05T14:15:30Z</time>
      </trkpt>
      <trkpt lat="45.06133" lon="6.23793">
        <ele>2354.61</ele>
        <time>2020-04-05T14:15:50Z</time>
      </trkpt>
      <trkpt lat="45.06109" lon="6.23806">
        <ele>2358.598</ele>
        <time>2020-04-05T14:16:10Z</time>
      </trkpt>
      <trkpt lat="45.06074" lon="6.23831">
        <ele>2366.332</ele>
        <time>2020-04-05T14:16:30Z</time>
      </trkpt>
      <trkpt lat="45.06037" lon="6.23844">
        <ele>2368.713</ele>
        <time>2020-04-05T14:16:50Z</time>
      </trkpt>
      <trkpt lat="45.06013" lon="6.23862">
        <ele>2366.42</ele>
        <time>2020-04-05T14:17:10Z</time>
      </trkpt>
      <trkpt lat="45.0596" lon="6.23869">
        <ele>2359.324</ele>
        <time>2020-04-05T14:17:30Z</time>
      </trkpt>
      <trkpt lat="45.05929" lon="6.23869">
        <ele>2354.111</ele>
        <time>2020-04-05T14:17:50Z</time>
      </trkpt>
      <trkpt lat="45.05908" lon="6.23878">
        <ele>2350.742</ele>
        <time>2020-04-05T14:18:10Z</time>
      </trkpt>
      <trkpt lat="45.05895" lon="6.23876">
        <ele>2348.922</ele>
        <time>2020-04-05T14:18:30Z</time>
      </trkpt>
      <trkpt lat="45.05862" lon="6.23881">
        <ele>2342.914</ele>
        <time>2020-04-05T14:18:50Z</time>
      </trkpt>
      <trkpt lat="45.05793" lon="6.23919">
        <ele>2330.008</ele>
        <time>2020-04-05T14:19:10Z</time>
      </trkpt>
      <trkpt lat="45.05775" lon="6.23943">
        <ele>2326.96</ele>
        <time>2020-04-05T14:19:30Z</time>
      </trkpt>
      <trkpt lat="45.05761" lon="6.23967">
        <ele>2319.188</ele>
        <time>2020-04-05T14:19:50Z</time>
      </trkpt>
      <trkpt lat="45.05755" lon="6.23999">
        <ele>2312.536</ele>
        <time>2020-04-05T14:20:10Z</time>
      </trkpt>
      <trkpt lat="45.05749" lon="6.24012">
        <ele>2309.67</ele>
        <time>2020-04-05T14:20:30Z</time>
      </trkpt>
      <trkpt lat="45.05741" lon="6.24047">
        <ele>2305.941</ele>
        <time>2020-04-05T14:20:50Z</time>
      </trkpt>
      <trkpt lat="45.05725" lon="6.24085">
        <ele>2302.298</ele>
        <time>2020-04-05T14:21:10Z</time>
      </trkpt>
      <trkpt lat="45.05728" lon="6.24132">
        <ele>2299.742</ele>
        <time>2020-04-05T14:21:30Z</time>
      </trkpt>
      <trkpt lat="45.05716" lon="6.24193">
        <ele>2294.049</ele>
        <time>2020-04-05T14:21:50Z</time>
      </trkpt>
      <trkpt lat="45.05716" lon="6.24245">
        <ele>2288.897</ele>
        <time>2020-04-05T14:22:10Z</time>
      </trkpt>
      <trkpt lat="45.05713" lon="6.24302">
        <ele>2281.323</ele>
        <time>2020-04-05T14:22:30Z</time>
      </trkpt>
      <trkpt lat="45.05727" lon="6.24412">
        <ele>2270.025</ele>
        <time>2020-04-05T14:22:50Z</time>
      </trkpt>
      <trkpt lat="45.05727" lon="6.24444">
        <ele>2266.608</ele>
        <time>2020-04-05T14:23:10Z</time>
      </trkpt>
      <trkpt lat="45.05733" lon="6.24497">
        <ele>2261.645</ele>
        <time>2020-04-05T14:23:30Z</time>
      </trkpt>
      <trkpt lat="45.05722" lon="6.24536">
        <ele>2256.263</ele>
        <time>2020-04-05T14:23:50Z</time>
      </trkpt>
      <trkpt lat="45.05707" lon="6.24634">
        <ele>2249.731</ele>
        <time>2020-04-05T14:24:10Z</time>
      </trkpt>
      <trkpt lat="45.05706" lon="6.24698">
        <ele>2244.675</ele>
        <time>2020-04-05T14:24:30Z</time>
      </trkpt>
      <trkpt lat="45.0569" lon="6.24779">
        <ele>2238.216</ele>
        <time>2020-04-05T14:24:50Z</time>
      </trkpt>
      <trkpt lat="45.05688" lon="6.24826">
        <ele>2233.583</ele>
        <time>2020-04-05T14:25:10Z</time>
      </trkpt>
      <trkpt lat="45.05681" lon="6.24863">
        <ele>2229.887</ele>
        <time>2020-04-05T14:25:30Z</time>
      </trkpt>
      <trkpt lat="45.05696" lon="6.24958">
        <ele>2221.184</ele>
        <time>2020-04-05T14:25:50Z</time>
      </trkpt>
      <trkpt lat="45.05688" lon="6.24998">
        <ele>2217.634</ele>
        <time>2020-04-05T14:26:10Z</time>
      </trkpt>
      <trkpt lat="45.05692" lon="6.25045">
        <ele>2213.955</ele>
        <time>2020-04-05T14:26:30Z</time>
      </trkpt>
      <trkpt lat="45.05703" lon="6.25069">
        <ele>2212.41</ele>
        <time>2020-04-05T14:26:50Z</time>
      </trkpt>
      <trkpt lat="45.05704" lon="6.25103">
        <ele>2208.608</ele>
        <time>2020-04-05T14:27:10Z</time>
      </trkpt>
      <trkpt lat="45.05709" lon="6.25132">
        <ele>2206.389</ele>
        <time>2020-04-05T14:27:30Z</time>
      </trkpt>
      <trkpt lat="45.05712" lon="6.25156">
        <ele>2204.287</ele>
        <time>2020-04-05T14:27:50Z</time>
      </trkpt>
      <trkpt lat="45.05726" lon="6.25164">
        <ele>2206.155</ele>
        <time>2020-04-05T14:28:10Z</time>
      </trkpt>
      <trkpt lat="45.05728" lon="6.25196">
        <ele>2201.289</ele>
        <time>2020-04-05T14:28:30Z</time>
      </trkpt>
      <trkpt lat="45.05736" lon="6.25212">
        <ele>2200.13</ele>
        <time>2020-04-05T14:28:50Z</time>
      </trkpt>
      <trkpt lat="45.05736" lon="6.25245">
        <ele>2199.217</ele>
        <time>2020-04-05T14:29:10Z</time>
      </trkpt>
      <trkpt lat="45.05698" lon="6.25247">
        <ele>2197.281</ele>
        <time>2020-04-05T14:29:30Z</time>
      </trkpt>
      <trkpt lat="45.05628" lon="6.25303">
        <ele>2203.078</ele>
        <time>2020-04-05T14:29:50Z</time>
      </trkpt>
      <trkpt lat="45.05611" lon="6.2532">
        <ele>2204.153</ele>
        <time>2020-04-05T14:30:10Z</time>
      </trkpt>
      <trkpt lat="45.05594" lon="6.25326">
        <ele>2201.804</ele>
        <time>2020-04-05T14:30:30Z</time>
      </trkpt>
      <trkpt lat="45.05553" lon="6.25373">
        <ele>2206.814</ele>
        <time>2020-04-05T14:30:50Z</time>
      </trkpt>
      <trkpt lat="45.05527" lon="6.25379">
        <ele>2203.408</ele>
        <time>2020-04-05T14:31:10Z</time>
      </trkpt>
      <trkpt lat="45.05512" lon="6.25397">
        <ele>2206.721</ele>
        <time>2020-04-05T14:31:30Z</time>
      </trkpt>
      <trkpt lat="45.05487" lon="6.254">
        <ele>2204.839</ele>
        <time>2020-04-05T14:31:50Z</time>
      </trkpt>
      <trkpt lat="45.05397" lon="6.25439">
        <ele>2215.517</ele>
        <time>2020-04-05T14:32:10Z</time>
      </trkpt>
      <trkpt lat="45.05343" lon="6.25469">
        <ele>2217.961</ele>
        <time>2020-04-05T14:32:30Z</time>
      </trkpt>
      <trkpt lat="45.05295" lon="6.25527">
        <ele>2223.662</ele>
        <time>2020-04-05T14:32:50Z</time>
      </trkpt>
      <trkpt lat="45.05276" lon="6.2554">
        <ele>2223.969</ele>
        <time>2020-04-05T14:33:10Z</time>
      </trkpt>
      <trkpt lat="45.05227" lon="6.25623">
        <ele>2223.653</ele>
        <time>2020-04-05T14:33:30Z</time>
      </trkpt>
      <trkpt lat="45.05197" lon="6.25691">
        <ele>2222.58</ele>
        <time>2020-04-05T14:33:50Z</time>
      </trkpt>
      <trkpt lat="45.05184" lon="6.25757">
        <ele>2219.746</ele>
        <time>2020-04-05T14:34:10Z</time>
      </trkpt>
      <trkpt lat="45.05188" lon="6.25813">
        <ele>2215.588</ele>
        <time>2020-04-05T14:34:30Z</time>
      </trkpt>
      <trkpt lat="45.05201" lon="6.25894">
        <ele>2209.616</ele>
        <time>2020-04-05T14:34:50Z</time>
      </trkpt>
      <trkpt lat="45.05213" lon="6.2593">
        <ele>2206.908</ele>
        <time>2020-04-05T14:35:10Z</time>
      </trkpt>
      <trkpt lat="45.05221" lon="6.26012">
        <ele>2198.49</ele>
        <time>2020-04-05T14:35:30Z</time>
      </trkpt>
      <trkpt lat="45.05244" lon="6.26111">
        <ele>2190.498</ele>
        <time>2020-04-05T14:35:50Z</time>
      </trkpt>
      <trkpt lat="45.05265" lon="6.26159">
        <ele>2184.726</ele>
        <time>2020-04-05T14:36:10Z</time>
      </trkpt>
      <trkpt lat="45.05254" lon="6.262">
        <ele>2175.38</ele>
        <time>2020-04-05T14:36:30Z</time>
      </trkpt>
      <trkpt lat="45.05264" lon="6.26268">
        <ele>2177.491</ele>
        <time>2020-04-05T14:36:50Z</time>
      </trkpt>
      <trkpt lat="45.05262" lon="6.26317">
        <ele>2169.958</ele>
        <time>2020-04-05T14:37:10Z</time>
      </trkpt>
      <trkpt lat="45.05297" lon="6.26363">
        <ele>2170.942</ele>
        <time>2020-04-05T14:37:30Z</time>
      </trkpt>
      <trkpt lat="45.053" lon="6.26416">
        <ele>2166.469</ele>
        <time>2020-04-05T14:37:50Z</time>
      </trkpt>
      <trkpt lat="45.05332" lon="6.26562">
        <ele>2161.575</ele>
        <time>2020-04-05T14:38:10Z</time>
      </trkpt>
      <trkpt lat="45.05324" lon="6.26613">
        <ele>2161.928</ele>
        <time>2020-04-05T14:38:30Z</time>
      </trkpt>
      <trkpt lat="45.05324" lon="6.26656">
        <ele>2160.82</ele>
        <time>2020-04-05T14:38:50Z</time>
      </trkpt>
      <trkpt lat="45.0531" lon="6.26688">
        <ele>2155.908</ele>
        <time>2020-04-05T14:39:10Z</time>
      </trkpt>
      <trkpt lat="45.05309" lon="6.26731">
        <ele>2145.973</ele>
        <time>2020-04-05T14:39:30Z</time>
      </trkpt>
      <trkpt lat="45.05279" lon="6.26825">
        <ele>2129.381</ele>
        <time>2020-04-05T14:39:50Z</time>
      </trkpt>
      <trkpt lat="45.05285" lon="6.26873">
        <ele>2122.469</ele>
        <time>2020-04-05T14:40:10Z</time>
      </trkpt>
      <trkpt lat="45.05275" lon="6.26906">
        <ele>2119.363</ele>
        <time>2020-04-05T14:40:30Z</time>
      </trkpt>
      <trkpt lat="45.05274" lon="6.26934">
        <ele>2114.584</ele>
        <time>2020-04-05T14:40:50Z</time>
      </trkpt>
      <trkpt lat="45.0525" lon="6.26964">
        <ele>2111.371</ele>
        <time>2020-04-05T14:41:10Z</time>
      </trkpt>
      <trkpt lat="45.0524" lon="6.26989">
        <ele>2106.385</ele>
        <time>2020-04-05T14:41:30Z</time>
      </trkpt>
      <trkpt lat="45.05225" lon="6.27006">
        <ele>2105.792</ele>
        <time>2020-04-05T14:41:50Z</time>
      </trkpt>
      <trkpt lat="45.05202" lon="6.27077">
        <ele>2094.898</ele>
        <time>2020-04-05T14:42:10Z</time>
      </trkpt>
      <trkpt lat="45.05176" lon="6.27165">
        <ele>2088.115</ele>
        <time>2020-04-05T14:42:30Z</time>
      </trkpt>
      <trkpt lat="45.05176" lon="6.27213">
        <ele>2079.026</ele>
        <time>2020-04-05T14:42:50Z</time>
      </trkpt>
      <trkpt lat="45.05159" lon="6.2723">
        <ele>2081.808</ele>
        <time>2020-04-05T14:43:10Z</time>
      </trkpt>
      <trkpt lat="45.05147" lon="6.27265">
        <ele>2078.545</ele>
        <time>2020-04-05T14:43:30Z</time>
      </trkpt>
      <trkpt lat="45.05138" lon="6.27309">
        <ele>2070.023</ele>
        <time>2020-04-05T14:43:50Z</time>
      </trkpt>
      <trkpt lat="45.05105" lon="6.27333">
        <ele>2065.891</ele>
        <time>2020-04-05T14:44:10Z</time>
      </trkpt>
      <trkpt lat="45.05083" lon="6.27359">
        <ele>2059.795</ele>
        <time>2020-04-05T14:44:30Z</time>
      </trkpt>
      <trkpt lat="45.05091" lon="6.27364">
        <ele>2057.446</ele>
        <time>2020-04-05T14:44:50Z</time>
      </trkpt>
      <trkpt lat="45.05083" lon="6.27376">
        <ele>2055.353</ele>
        <time>2020-04-05T14:45:10Z</time>
      </trkpt>
      <trkpt lat="45.05057" lon="6.27379">
        <ele>2050.437</ele>
        <time>2020-04-05T14:45:30Z</time>
      </trkpt>
      <trkpt lat="45.05039" lon="6.274">
        <ele>2045.284</ele>
        <time>2020-04-05T14:45:50Z</time>
      </trkpt>
      <trkpt lat="45.05053" lon="6.27427">
        <ele>2039.465</ele>
        <time>2020-04-05T14:46:10Z</time>
      </trkpt>
      <trkpt lat="45.0503" lon="6.27442">
        <ele>2035.568</ele>
        <time>2020-04-05T14:46:30Z</time>
      </trkpt>
      <trkpt lat="45.05039" lon="6.27457">
        <ele>2031.414</ele>
        <time>2020-04-05T14:46:50Z</time>
      </trkpt>
      <trkpt lat="45.05054" lon="6.27459">
        <ele>2031.008</ele>
        <time>2020-04-05T14:47:10Z</time>
      </trkpt>
      <trkpt lat="45.05042" lon="6.27476">
        <ele>2026.142</ele>
        <time>2020-04-05T14:47:30Z</time>
      </trkpt>
      <trkpt lat="45.05047" lon="6.27489">
        <ele>2022.77</ele>
        <time>2020-04-05T14:47:50Z</time>
      </trkpt>
      <trkpt lat="45.05038" lon="6.27491">
        <ele>2021.868</ele>
        <time>2020-04-05T14:48:10Z</time>
      </trkpt>
      <trkpt lat="45.05049" lon="6.27511">
        <ele>2017.892</ele>
        <time>2020-04-05T14:48:30Z</time>
      </trkpt>
      <trkpt lat="45.05066" lon="6.27505">
        <ele>2018.363</ele>
        <time>2020-04-05T14:48:50Z</time>
      </trkpt>
      <trkpt lat="45.05085" lon="6.27518">
        <ele>2014.65</ele>
        <time>2020-04-05T14:49:10Z</time>
      </trkpt>
      <trkpt lat="45.05084" lon="6.27538">
        <ele>2011.544</ele>
        <time>2020-04-05T14:49:30Z</time>
      </trkpt>
      <trkpt lat="45.0509" lon="6.27547">
        <ele>2009.551</ele>
        <time>2020-04-05T14:49:50Z</time>
      </trkpt>
      <trkpt lat="45.05105" lon="6.27544">
        <ele>2008.326</ele>
        <time>2020-04-05T14:50:10Z</time>
      </trkpt>
      <trkpt lat="45.05098" lon="6.27576">
        <ele>2003.447</ele>
        <time>2020-04-05T14:50:30Z</time>
      </trkpt>
      <trkpt lat="45.05115" lon="6.27576">
        <ele>2002.311</ele>
        <time>2020-04-05T14:50:50Z</time>
      </trkpt>
      <trkpt lat="45.05099" lon="6.27603">
        <ele>1998.308</ele>
        <time>2020-04-05T14:51:10Z</time>
      </trkpt>
      <trkpt lat="45.05119" lon="6.27616">
        <ele>1995.698</ele>
        <time>2020-04-05T14:51:30Z</time>
      </trkpt>
      <trkpt lat="45.05131" lon="6.27615">
        <ele>1993.276</ele>
        <time>2020-04-05T14:51:50Z</time>
      </trkpt>
      <trkpt lat="45.05126" lon="6.27646">
        <ele>1989.444</ele>
        <time>2020-04-05T14:52:10Z</time>
      </trkpt>
      <trkpt lat="45.05129" lon="6.27672">
        <ele>1985.098</ele>
        <time>2020-04-05T14:52:30Z</time>
      </trkpt>
      <trkpt lat="45.05118" lon="6.27683">
        <ele>1983.139</ele>
        <time>2020-04-05T14:52:50Z</time>
      </trkpt>
      <trkpt lat="45.05132" lon="6.27691">
        <ele>1981.316</ele>
        <time>2020-04-05T14:53:10Z</time>
      </trkpt>
      <trkpt lat="45.05147" lon="6.2769">
        <ele>1979.19</ele>
        <time>2020-04-05T14:53:30Z</time>
      </trkpt>
      <trkpt lat="45.0514" lon="6.27719">
        <ele>1974.597</ele>
        <time>2020-04-05T14:53:50Z</time>
      </trkpt>
      <trkpt lat="45.05165" lon="6.27707">
        <ele>1970.626</ele>
        <time>2020-04-05T14:54:10Z</time>
      </trkpt>
      <trkpt lat="45.05199" lon="6.27671">
        <ele>1962.547</ele>
        <time>2020-04-05T14:54:30Z</time>
      </trkpt>
      <trkpt lat="45.05246" lon="6.27663">
        <ele>1954.211</ele>
        <time>2020-04-05T14:54:50Z</time>
      </trkpt>
      <trkpt lat="45.0525" lon="6.27681">
        <ele>1950.408</ele>
        <time>2020-04-05T14:55:10Z</time>
      </trkpt>
      <trkpt lat="45.05224" lon="6.27717">
        <ele>1948.618</ele>
        <time>2020-04-05T14:55:30Z</time>
      </trkpt>
      <trkpt lat="45.05222" lon="6.27743">
        <ele>1944.496</ele>
        <time>2020-04-05T14:55:50Z</time>
      </trkpt>
      <trkpt lat="45.05236" lon="6.27747">
        <ele>1940.244</ele>
        <time>2020-04-05T14:56:10Z</time>
      </trkpt>
      <trkpt lat="45.05226" lon="6.27771">
        <ele>1937.628</ele>
        <time>2020-04-05T14:56:30Z</time>
      </trkpt>
      <trkpt lat="45.05253" lon="6.27779">
        <ele>1930.959</ele>
        <time>2020-04-05T14:56:50Z</time>
      </trkpt>
      <trkpt lat="45.053" lon="6.27754">
        <ele>1921.646</ele>
        <time>2020-04-05T14:57:10Z</time>
      </trkpt>
      <trkpt lat="45.05307" lon="6.27731">
        <ele>1921.21</ele>
        <time>2020-04-05T14:57:30Z</time>
      </trkpt>
      <trkpt lat="45.05311" lon="6.27751">
        <ele>1918.297</ele>
        <time>2020-04-05T14:57:50Z</time>
      </trkpt>
      <trkpt lat="45.05305" lon="6.27779">
        <ele>1915.114</ele>
        <time>2020-04-05T14:58:10Z</time>
      </trkpt>
      <trkpt lat="45.05327" lon="6.2776">
        <ele>1908.654</ele>
        <time>2020-04-05T14:58:30Z</time>
      </trkpt>
      <trkpt lat="45.05311" lon="6.2786">
        <ele>1893.509</ele>
        <time>2020-04-05T14:58:50Z</time>
      </trkpt>
      <trkpt lat="45.05329" lon="6.27843">
        <ele>1891.008</ele>
        <time>2020-04-05T14:59:10Z</time>
      </trkpt>
      <trkpt lat="45.05363" lon="6.27792">
        <ele>1884.477</ele>
        <time>2020-04-05T14:59:30Z</time>
      </trkpt>
      <trkpt lat="45.05353" lon="6.27863">
        <ele>1875.055</ele>
        <time>2020-04-05T14:59:50Z</time>
      </trkpt>
      <trkpt lat="45.05352" lon="6.2792">
        <ele>1864.043</ele>
        <time>2020-04-05T15:00:10Z</time>
      </trkpt>
      <trkpt lat="45.05358" lon="6.27918">
        <ele>1862.657</ele>
        <time>2020-04-05T15:00:30Z</time>
      </trkpt>
      <trkpt lat="45.05407" lon="6.27827">
        <ele>1854.648</ele>
        <time>2020-04-05T15:00:50Z</time>
      </trkpt>
      <trkpt lat="45.05411" lon="6.27866">
        <ele>1846.795</ele>
        <time>2020-04-05T15:01:10Z</time>
      </trkpt>
      <trkpt lat="45.05409" lon="6.279">
        <ele>1842.169</ele>
        <time>2020-04-05T15:01:30Z</time>
      </trkpt>
      <trkpt lat="45.05411" lon="6.27939">
        <ele>1835.586</ele>
        <time>2020-04-05T15:01:50Z</time>
      </trkpt>
      <trkpt lat="45.05427" lon="6.2792">
        <ele>1831.928</ele>
        <time>2020-04-05T15:02:10Z</time>
      </trkpt>
      <trkpt lat="45.05432" lon="6.27954">
        <ele>1823.889</ele>
        <time>2020-04-05T15:02:30Z</time>
      </trkpt>
      <trkpt lat="45.05405" lon="6.27997">
        <ele>1819.417</ele>
        <time>2020-04-05T15:02:50Z</time>
      </trkpt>
      <trkpt lat="45.05385" lon="6.28049">
        <ele>1811.708</ele>
        <time>2020-04-05T15:03:10Z</time>
      </trkpt>
      <trkpt lat="45.05423" lon="6.2804">
        <ele>1801.328</ele>
        <time>2020-04-05T15:03:30Z</time>
      </trkpt>
      <trkpt lat="45.05477" lon="6.28007">
        <ele>1793.846</ele>
        <time>2020-04-05T15:03:50Z</time>
      </trkpt>
      <trkpt lat="45.05508" lon="6.28019">
        <ele>1783.044</ele>
        <time>2020-04-05T15:04:10Z</time>
      </trkpt>
      <trkpt lat="45.05515" lon="6.28033">
        <ele>1777.388</ele>
        <time>2020-04-05T15:04:30Z</time>
      </trkpt>
      <trkpt lat="45.05529" lon="6.28031">
        <ele>1773.719</ele>
        <time>2020-04-05T15:04:50Z</time>
      </trkpt>
      <trkpt lat="45.05534" lon="6.28052">
        <ele>1767.296</ele>
        <time>2020-04-05T15:05:10Z</time>
      </trkpt>
      <trkpt lat="45.05556" lon="6.28021">
        <ele>1767.09</ele>
        <time>2020-04-05T15:05:30Z</time>
      </trkpt>
      <trkpt lat="45.05568" lon="6.28022">
        <ele>1762.337</ele>
        <time>2020-04-05T15:05:50Z</time>
      </trkpt>
      <trkpt lat="45.05593" lon="6.27982">
        <ele>1758.196</ele>
        <time>2020-04-05T15:06:10Z</time>
      </trkpt>
      <trkpt lat="45.05603" lon="6.27992">
        <ele>1752.331</ele>
        <time>2020-04-05T15:06:30Z</time>
      </trkpt>
      <trkpt lat="45.05635" lon="6.27986">
        <ele>1744.924</ele>
        <time>2020-04-05T15:06:50Z</time>
      </trkpt>
      <trkpt lat="45.05677" lon="6.28002">
        <ele>1737.208</ele>
        <time>2020-04-05T15:07:10Z</time>
      </trkpt>
      <trkpt lat="45.05701" lon="6.28005">
        <ele>1737.045</ele>
        <time>2020-04-05T15:07:30Z</time>
      </trkpt>
      <trkpt lat="45.05706" lon="6.2804">
        <ele>1736.983</ele>
        <time>2020-04-05T15:07:50Z</time>
      </trkpt>
      <trkpt lat="45.05682" lon="6.28069">
        <ele>1736.791</ele>
        <time>2020-04-05T15:08:10Z</time>
      </trkpt>
      <trkpt lat="45.05663" lon="6.28113">
        <ele>1744.975</ele>
        <time>2020-04-05T15:08:30Z</time>
      </trkpt>
      <trkpt lat="45.05618" lon="6.28194">
        <ele>1752.396</ele>
        <time>2020-04-05T15:08:50Z</time>
      </trkpt>
      <trkpt lat="45.05547" lon="6.28301">
        <ele>1757.363</ele>
        <time>2020-04-05T15:09:10Z</time>
      </trkpt>
      <trkpt lat="45.05481" lon="6.2839">
        <ele>1769.267</ele>
        <time>2020-04-05T15:09:30Z</time>
      </trkpt>
      <trkpt lat="45.05464" lon="6.28409">
        <ele>1773.214</ele>
        <time>2020-04-05T15:09:50Z</time>
      </trkpt>
      <trkpt lat="45.05441" lon="6.28422">
        <ele>1777.072</ele>
        <time>2020-04-05T15:10:10Z</time>
      </trkpt>
      <trkpt lat="45.0542" lon="6.28453">
        <ele>1783.213</ele>
        <time>2020-04-05T15:10:30Z</time>
      </trkpt>
      <trkpt lat="45.05394" lon="6.2864">
        <ele>1796.614</ele>
        <time>2020-04-05T15:10:50Z</time>
      </trkpt>
      <trkpt lat="45.05367" lon="6.28678">
        <ele>1795.308</ele>
        <time>2020-04-05T15:11:10Z</time>
      </trkpt>
      <trkpt lat="45.05315" lon="6.28722">
        <ele>1792.073</ele>
        <time>2020-04-05T15:11:30Z</time>
      </trkpt>
      <trkpt lat="45.05278" lon="6.28777">
        <ele>1797.111</ele>
        <time>2020-04-05T15:11:50Z</time>
      </trkpt>
      <trkpt lat="45.05248" lon="6.28842">
        <ele>1805.279</ele>
        <time>2020-04-05T15:12:10Z</time>
      </trkpt>
      <trkpt lat="45.05204" lon="6.28866">
        <ele>1804.843</ele>
        <time>2020-04-05T15:12:30Z</time>
      </trkpt>
      <trkpt lat="45.05122" lon="6.28886">
        <ele>1806.444</ele>
        <time>2020-04-05T15:12:50Z</time>
      </trkpt>
      <trkpt lat="45.05092" lon="6.28906">
        <ele>1813.691</ele>
        <time>2020-04-05T15:13:10Z</time>
      </trkpt>
      <trkpt lat="45.05059" lon="6.28906">
        <ele>1812.065</ele>
        <time>2020-04-05T15:13:30Z</time>
      </trkpt>
      <trkpt lat="45.04893" lon="6.28964">
        <ele>1826.812</ele>
        <time>2020-04-05T15:13:50Z</time>
      </trkpt>
      <trkpt lat="45.0486" lon="6.29015">
        <ele>1825.361</ele>
        <time>2020-04-05T15:14:10Z</time>
      </trkpt>
      <trkpt lat="45.04845" lon="6.29074">
        <ele>1825.921</ele>
        <time>2020-04-05T15:14:30Z</time>
      </trkpt>
      <trkpt lat="45.04828" lon="6.29093">
        <ele>1816.713</ele>
        <time>2020-04-05T15:14:50Z</time>
      </trkpt>
      <trkpt lat="45.04836" lon="6.29156">
        <ele>1818.808</ele>
        <time>2020-04-05T15:15:10Z</time>
      </trkpt>
      <trkpt lat="45.04882" lon="6.29255">
        <ele>1806.212</ele>
        <time>2020-04-05T15:15:30Z</time>
      </trkpt>
      <trkpt lat="45.04907" lon="6.29327">
        <ele>1794.16</ele>
        <time>2020-04-05T15:15:50Z</time>
      </trkpt>
      <trkpt lat="45.04915" lon="6.29391">
        <ele>1784.278</ele>
        <time>2020-04-05T15:16:10Z</time>
      </trkpt>
      <trkpt lat="45.04935" lon="6.29423">
        <ele>1785.172</ele>
        <time>2020-04-05T15:16:30Z</time>
      </trkpt>
      <trkpt lat="45.04936" lon="6.29438">
        <ele>1781.933</ele>
        <time>2020-04-05T15:16:50Z</time>
      </trkpt>
      <trkpt lat="45.04956" lon="6.29466">
        <ele>1780.82</ele>
        <time>2020-04-05T15:17:10Z</time>
      </trkpt>
      <trkpt lat="45.04962" lon="6.29511">
        <ele>1773.274</ele>
        <time>2020-04-05T15:17:30Z</time>
      </trkpt>
      <trkpt lat="45.04948" lon="6.29533">
        <ele>1766.871</ele>
        <time>2020-04-05T15:17:50Z</time>
      </trkpt>
      <trkpt lat="45.04946" lon="6.29525">
        <ele>1766.749</ele>
        <time>2020-04-05T15:18:10Z</time>
      </trkpt>
      <trkpt lat="45.04931" lon="6.29536">
        <ele>1761.602</ele>
        <time>2020-04-05T15:18:30Z</time>
      </trkpt>
      <trkpt lat="45.04928" lon="6.29552">
        <ele>1759.422</ele>
        <time>2020-04-05T15:18:50Z</time>
      </trkpt>
      <trkpt lat="45.04891" lon="6.29552">
        <ele>1747.408</ele>
        <time>2020-04-05T15:19:10Z</time>
      </trkpt>
      <trkpt lat="45.04885" lon="6.29533">
        <ele>1748.02</ele>
        <time>2020-04-05T15:19:30Z</time>
      </trkpt>
      <trkpt lat="45.04863" lon="6.29532">
        <ele>1740.228</ele>
        <time>2020-04-05T15:19:50Z</time>
      </trkpt>
      <trkpt lat="45.04856" lon="6.2954">
        <ele>1736.536</ele>
        <time>2020-04-05T15:20:10Z</time>
      </trkpt>
      <trkpt lat="45.04849" lon="6.29538">
        <ele>1734.43</ele>
        <time>2020-04-05T15:20:30Z</time>
      </trkpt>
      <trkpt lat="45.04844" lon="6.29547">
        <ele>1731.591</ele>
        <time>2020-04-05T15:20:50Z</time>
      </trkpt>
      <trkpt lat="45.04836" lon="6.29613">
        <ele>1717.978</ele>
        <time>2020-04-05T15:21:10Z</time>
      </trkpt>
      <trkpt lat="45.04836" lon="6.29645">
        <ele>1713.492</ele>
        <time>2020-04-05T15:21:30Z</time>
      </trkpt>
      <trkpt lat="45.04832" lon="6.29657">
        <ele>1709.739</ele>
        <time>2020-04-05T15:21:50Z</time>
      </trkpt>
      <trkpt lat="45.04824" lon="6.29734">
        <ele>1696.069</ele>
        <time>2020-04-05T15:22:10Z</time>
      </trkpt>
      <trkpt lat="45.04827" lon="6.29797">
        <ele>1687.104</ele>
        <time>2020-04-05T15:22:30Z</time>
      </trkpt>
      <trkpt lat="45.04832" lon="6.29825">
        <ele>1682.624</ele>
        <time>2020-04-05T15:22:50Z</time>
      </trkpt>
      <trkpt lat="45.04836" lon="6.29902">
        <ele>1666.908</ele>
        <time>2020-04-05T15:23:10Z</time>
      </trkpt>
      <trkpt lat="45.04844" lon="6.29929">
        <ele>1662.722</ele>
        <time>2020-04-05T15:23:30Z</time>
      </trkpt>
      <trkpt lat="45.04845" lon="6.29957">
        <ele>1656.06</ele>
        <time>2020-04-05T15:23:50Z</time>
      </trkpt>
      <trkpt lat="45.04853" lon="6.3">
        <ele>1648.358</ele>
        <time>2020-04-05T15:24:10Z</time>
      </trkpt>
      <trkpt lat="45.04864" lon="6.30028">
        <ele>1644.692</ele>
        <time>2020-04-05T15:24:30Z</time>
      </trkpt>
      <trkpt lat="45.04866" lon="6.30052">
        <ele>1641.133</ele>
        <time>2020-04-05T15:24:50Z</time>
      </trkpt>
      <trkpt lat="45.04852" lon="6.30073">
        <ele>1635.13</ele>
        <time>2020-04-05T15:25:10Z</time>
      </trkpt>
      <trkpt lat="45.04853" lon="6.30113">
        <ele>1623.964</ele>
        <time>2020-04-05T15:25:30Z</time>
      </trkpt>
      <trkpt lat="45.04835" lon="6.30148">
        <ele>1614.841</ele>
        <time>2020-04-05T15:25:50Z</time>
      </trkpt>
      <trkpt lat="45.04826" lon="6.30169">
        <ele>1608.483</ele>
        <time>2020-04-05T15:26:10Z</time>
      </trkpt>
      <trkpt lat="45.04803" lon="6.30175">
        <ele>1609.725</ele>
        <time>2020-04-05T15:26:30Z</time>
      </trkpt>
      <trkpt lat="45.04771" lon="6.30175">
        <ele>1603.317</ele>
        <time>2020-04-05T15:26:50Z</time>
      </trkpt>
      <trkpt lat="45.04752" lon="6.30187">
        <ele>1597.408</ele>
        <time>2020-04-05T15:27:10Z</time>
      </trkpt>
      <trkpt lat="45.04733" lon="6.30212">
        <ele>1589.354</ele>
        <time>2020-04-05T15:27:30Z</time>
      </trkpt>
      <trkpt lat="45.04692" lon="6.30235">
        <ele>1576.782</ele>
        <time>2020-04-05T15:27:50Z</time>
      </trkpt>
      <trkpt lat="45.04687" lon="6.30247">
        <ele>1573.36</ele>
        <time>2020-04-05T15:28:10Z</time>
      </trkpt>
      <trkpt lat="45.04706" lon="6.3029">
        <ele>1568.614</ele>
        <time>2020-04-05T15:28:30Z</time>
      </trkpt>
      <trkpt lat="45.04725" lon="6.30305">
        <ele>1567.865</ele>
        <time>2020-04-05T15:28:50Z</time>
      </trkpt>
      <trkpt lat="45.0474" lon="6.30307">
        <ele>1565.612</ele>
        <time>2020-04-05T15:29:10Z</time>
      </trkpt>
      <trkpt lat="45.04753" lon="6.303">
        <ele>1567.376</ele>
        <time>2020-04-05T15:29:30Z</time>
      </trkpt>
      <trkpt lat="45.04771" lon="6.30298">
        <ele>1566.213</ele>
        <time>2020-04-05T15:29:50Z</time>
      </trkpt>
      <trkpt lat="45.04789" lon="6.30287">
        <ele>1570.475</ele>
        <time>2020-04-05T15:30:10Z</time>
      </trkpt>
      <trkpt lat="45.0481" lon="6.30293">
        <ele>1568.228</ele>
        <time>2020-04-05T15:30:30Z</time>
      </trkpt>
      <trkpt lat="45.04793" lon="6.30305">
        <ele>1562.72</ele>
        <time>2020-04-05T15:30:50Z</time>
      </trkpt>
      <trkpt lat="45.04765" lon="6.30317">
        <ele>1558.608</ele>
        <time>2020-04-05T15:31:10Z</time>
      </trkpt>
      <trkpt lat="45.04737" lon="6.30347">
        <ele>1550.073</ele>
        <time>2020-04-05T15:31:30Z</time>
      </trkpt>
      <trkpt lat="45.04721" lon="6.3035">
        <ele>1551.181</ele>
        <time>2020-04-05T15:31:50Z</time>
      </trkpt>
      <trkpt lat="45.04699" lon="6.30347">
        <ele>1551.979</ele>
        <time>2020-04-05T15:32:10Z</time>
      </trkpt>
      <trkpt lat="45.04693" lon="6.3035">
        <ele>1549.733</ele>
        <time>2020-04-05T15:32:30Z</time>
      </trkpt>
      <trkpt lat="45.04695" lon="6.30362">
        <ele>1544.374</ele>
        <time>2020-04-05T15:32:50Z</time>
      </trkpt>
      <trkpt lat="45.04715" lon="6.30362">
        <ele>1544.781</ele>
        <time>2020-04-05T15:33:10Z</time>
      </trkpt>
      <trkpt lat="45.04735" lon="6.30368">
        <ele>1541.995</ele>
        <time>2020-04-05T15:33:30Z</time>
      </trkpt>
      <trkpt lat="45.04749" lon="6.3036">
        <ele>1542.862</ele>
        <time>2020-04-05T15:33:50Z</time>
      </trkpt>
      <trkpt lat="45.04758" lon="6.30365">
        <ele>1545.098</ele>
        <time>2020-04-05T15:34:10Z</time>
      </trkpt>
      <trkpt lat="45.04759" lon="6.30377">
        <ele>1545.915</ele>
        <time>2020-04-05T15:34:30Z</time>
      </trkpt>
      <trkpt lat="45.04742" lon="6.30398">
        <ele>1539.526</ele>
        <time>2020-04-05T15:34:50Z</time>
      </trkpt>
      <trkpt lat="45.0472" lon="6.30438">
        <ele>1531.408</ele>
        <time>2020-04-05T15:35:10Z</time>
      </trkpt>
      <trkpt lat="45.0471" lon="6.30488">
        <ele>1527.565</ele>
        <time>2020-04-05T15:35:30Z</time>
      </trkpt>
      <trkpt lat="45.04686" lon="6.30534">
        <ele>1521.073</ele>
        <time>2020-04-05T15:35:50Z</time>
      </trkpt>
      <trkpt lat="45.0467" lon="6.30542">
        <ele>1519.811</ele>
        <time>2020-04-05T15:36:10Z</time>
      </trkpt>
      <trkpt lat="45.04635" lon="6.30544">
        <ele>1520.195</ele>
        <time>2020-04-05T15:36:30Z</time>
      </trkpt>
      <trkpt lat="45.04614" lon="6.30527">
        <ele>1519.776</ele>
        <time>2020-04-05T15:36:50Z</time>
      </trkpt>
      <trkpt lat="45.04589" lon="6.3052">
        <ele>1513.743</ele>
        <time>2020-04-05T15:37:10Z</time>
      </trkpt>
      <trkpt lat="45.04565" lon="6.3053">
        <ele>1506.137</ele>
        <time>2020-04-05T15:37:30Z</time>
      </trkpt>
      <trkpt lat="45.04542" lon="6.30531">
        <ele>1496.464</ele>
        <time>2020-04-05T15:37:50Z</time>
      </trkpt>
      <trkpt lat="45.04532" lon="6.3057">
        <ele>1489.472</ele>
        <time>2020-04-05T15:38:10Z</time>
      </trkpt>
      <trkpt lat="45.04519" lon="6.30602">
        <ele>1482.613</ele>
        <time>2020-04-05T15:38:30Z</time>
      </trkpt>
      <trkpt lat="45.04501" lon="6.30627">
        <ele>1475.614</ele>
        <time>2020-04-05T15:38:50Z</time>
      </trkpt>
      <trkpt lat="45.04517" lon="6.30656">
        <ele>1476.008</ele>
        <time>2020-04-05T15:39:10Z</time>
      </trkpt>
      <trkpt lat="45.04626" lon="6.3074">
        <ele>1482.123</ele>
        <time>2020-04-05T15:39:30Z</time>
      </trkpt>
    </trkseg>
  </trk>
</gpx>